Wetterdaten: Sonntag, 13.10.2013
Datum Zeit Temp. Aussen +5cm Feuchte Auss Luftdruck Regen Sonnenschein Regendauer UV Solar Windben
13.10.2013 00:00 7,3 C 6,1 C 97 % 1015,2 hPa 0,0 l/m 0 min 2 min 0,0 UV-I 0 W/m 0,0 km/h (0 Bft)
13.10.2013 00:02 7,3 C 6,1 C 97 % 1015,2 hPa 0,0 l/m 0 min 2 min 0,0 UV-I 0 W/m 0,0 km/h (0 Bft)
13.10.2013 00:06 7,3 C 6,1 C 97 % 1015,1 hPa 0,0 l/m 0 min 2 min 0,0 UV-I 0 W/m 0,0 km/h (0 Bft)
13.10.2013 00:08 7,3 C 6,1 C 97 % 1015,1 hPa 0,0 l/m 0 min 0 min 0,0 UV-I 0 W/m 0,0 km/h (0 Bft)
13.10.2013 00:10 7,3 C 6,1 C 97 % 1015,1 hPa 0,0 l/m 0 min 2 min 0,0 UV-I 0 W/m 0,0 km/h (0 Bft)
13.10.2013 00:12 7,2 C 6,1 C 97 % 1015,1 hPa 0,0 l/m 0 min 2 min 0,0 UV-I 0 W/m 0,0 km/h (0 Bft)
13.10.2013 00:14 7,2 C 6,1 C 97 % 1015,0 hPa 0,0 l/m 0 min 0 min 0,0 UV-I 0 W/m 0,0 km/h (0 Bft)
13.10.2013 00:16 7,2 C 6,1 C 97 % 1015,0 hPa 0,0 l/m 0 min 0 min 0,0 UV-I 0 W/m 0,0 km/h (0 Bft)
13.10.2013 00:18 7,2 C 6,1 C 97 % 1015,0 hPa 0,0 l/m 0 min 2 min 0,0 UV-I 0 W/m 0,0 km/h (0 Bft)
13.10.2013 00:20 7,2 C 6,1 C 97 % 1015,0 hPa 0,0 l/m 0 min 0 min 0,0 UV-I 0 W/m 0,0 km/h (0 Bft)
13.10.2013 00:22 7,2 C 6,1 C 97 % 1014,9 hPa 0,0 l/m 0 min 0 min 0,0 UV-I 0 W/m 0,0 km/h (0 Bft)
13.10.2013 00:24 7,2 C 6,1 C 97 % 1015,0 hPa 0,0 l/m 0 min 0 min 0,0 UV-I 0 W/m 5,1 km/h (1 Bft)
13.10.2013 00:26 7,2 C 6,1 C 97 % 1014,9 hPa 0,0 l/m 0 min 0 min 0,0 UV-I 0 W/m 0,0 km/h (0 Bft)
13.10.2013 00:28 7,1 C 6,1 C 97 % 1014,9 hPa 0,0 l/m 0 min 0 min 0,0 UV-I 0 W/m 0,0 km/h (0 Bft)
13.10.2013 00:30 7,1 C 6,1 C 96 % 1014,9 hPa 0,0 l/m 0 min 0 min 0,0 UV-I 0 W/m 5,1 km/h (1 Bft)
13.10.2013 00:32 7,1 C 6,1 C 96 % 1014,8 hPa 0,0 l/m 0 min 0 min 0,0 UV-I 0 W/m 2,6 km/h (1 Bft)
13.10.2013 00:34 7,1 C 6,1 C 96 % 1014,9 hPa 0,0 l/m 0 min 0 min 0,0 UV-I 0 W/m 0,0 km/h (0 Bft)
13.10.2013 00:36 7,1 C 6,1 C 96 % 1014,8 hPa 0,0 l/m 0 min 0 min 0,0 UV-I 0 W/m 0,0 km/h (0 Bft)
13.10.2013 00:38 7,1 C 6,1 C 96 % 1014,8 hPa 0,0 l/m 0 min 0 min 0,0 UV-I 0 W/m 0,0 km/h (0 Bft)
13.10.2013 00:40 7,1 C 6,1 C 96 % 1014,8 hPa 0,0 l/m 0 min 0 min 0,0 UV-I 0 W/m 0,0 km/h (0 Bft)
13.10.2013 00:42 7,1 C 6,1 C 96 % 1014,8 hPa 0,0 l/m 0 min 0 min 0,0 UV-I 0 W/m 0,0 km/h (0 Bft)
13.10.2013 00:44 7,1 C 6,1 C 96 % 1014,7 hPa 0,0 l/m 0 min 0 min 0,0 UV-I 0 W/m 0,0 km/h (0 Bft)
13.10.2013 00:46 7,1 C 6,1 C 96 % 1014,7 hPa 0,0 l/m 0 min 0 min 0,0 UV-I 0 W/m 2,6 km/h (1 Bft)
13.10.2013 00:48 7,1 C 6,1 C 96 % 1014,7 hPa 0,0 l/m 0 min 0 min 0,0 UV-I 0 W/m 0,0 km/h (0 Bft)
13.10.2013 00:50 7,1 C 6,1 C 96 % 1014,7 hPa 0,0 l/m 0 min 0 min 0,0 UV-I 0 W/m 0,0 km/h (0 Bft)
13.10.2013 00:52 7,1 C 6,1 C 96 % 1014,7 hPa 0,0 l/m 0 min 0 min 0,0 UV-I 0 W/m 5,1 km/h (1 Bft)
13.10.2013 00:54 7,1 C 6,1 C 96 % 1014,6 hPa 0,0 l/m 0 min 0 min 0,0 UV-I 0 W/m 0,0 km/h (0 Bft)
13.10.2013 00:56 7,1 C 6,1 C 96 % 1014,6 hPa 0,0 l/m 0 min 0 min 0,0 UV-I 0 W/m 0,0 km/h (0 Bft)
13.10.2013 00:58 7,1 C 6,1 C 96 % 1014,5 hPa 0,0 l/m 0 min 0 min 0,0 UV-I 0 W/m 0,0 km/h (0 Bft)
13.10.2013 01:00 7,1 C 6,1 C 96 % 1014,5 hPa 0,0 l/m 0 min 0 min 0,0 UV-I 0 W/m 0,0 km/h (0 Bft)
13.10.2013 01:02 7,1 C 6,1 C 96 % 1014,5 hPa 0,0 l/m 0 min 0 min 0,0 UV-I 0 W/m 0,0 km/h (0 Bft)
13.10.2013 01:06 7,1 C 6,1 C 97 % 1014,5 hPa 0,0 l/m 0 min 0 min 0,0 UV-I 0 W/m 0,0 km/h (0 Bft)
13.10.2013 01:08 7,1 C 6,1 C 97 % 1014,5 hPa 0,0 l/m 0 min 0 min 0,0 UV-I 0 W/m 0,0 km/h (0 Bft)
13.10.2013 01:10 7,1 C 6,1 C 97 % 1014,5 hPa 0,0 l/m 0 min 0 min 0,0 UV-I 0 W/m 0,0 km/h (0 Bft)
13.10.2013 01:12 7,1 C 6,1 C 97 % 1014,5 hPa 0,0 l/m 0 min 0 min 0,0 UV-I 0 W/m 5,1 km/h (1 Bft)
13.10.2013 01:14 7,1 C 6,1 C 97 % 1014,5 hPa 0,0 l/m 0 min 0 min 0,0 UV-I 0 W/m 2,6 km/h (1 Bft)
13.10.2013 01:16 7,1 C 6,1 C 97 % 1014,5 hPa 0,0 l/m 0 min 0 min 0,0 UV-I 0 W/m 5,1 km/h (1 Bft)
13.10.2013 01:18 7,1 C 6,1 C 97 % 1014,5 hPa 0,0 l/m 0 min 0 min 0,0 UV-I 0 W/m 7,7 km/h (2 Bft)
13.10.2013 01:20 7,1 C 6,1 C 97 % 1014,5 hPa 0,0 l/m 0 min 0 min 0,0 UV-I 0 W/m 2,6 km/h (1 Bft)
13.10.2013 01:22 7,1 C 6,1 C 97 % 1014,5 hPa 0,0 l/m 0 min 0 min 0,0 UV-I 0 W/m 0,0 km/h (0 Bft)
13.10.2013 01:24 7,1 C 6,1 C 97 % 1014,5 hPa 0,0 l/m 0 min 0 min 0,0 UV-I 0 W/m 0,0 km/h (0 Bft)
13.10.2013 01:26 7,1 C 6,1 C 97 % 1014,6 hPa 0,0 l/m 0 min 0 min 0,0 UV-I 0 W/m 0,0 km/h (0 Bft)
13.10.2013 01:28 7,0 C 6,1 C 97 % 1014,7 hPa 0,0 l/m 0 min 0 min 0,0 UV-I 0 W/m 0,0 km/h (0 Bft)
13.10.2013 01:30 7,0 C 5,6 C 97 % 1014,8 hPa 0,0 l/m 0 min 0 min 0,0 UV-I 0 W/m 0,0 km/h (0 Bft)
13.10.2013 01:32 7,0 C 5,6 C 97 % 1014,8 hPa 0,0 l/m 0 min 0 min 0,0 UV-I 0 W/m 0,0 km/h (0 Bft)
13.10.2013 01:34 7,0 C 5,6 C 97 % 1014,9 hPa 0,0 l/m 0 min 0 min 0,0 UV-I 0 W/m 2,6 km/h (1 Bft)
13.10.2013 01:36 7,0 C 5,6 C 97 % 1014,9 hPa 0,0 l/m 0 min 0 min 0,0 UV-I 0 W/m 0,0 km/h (0 Bft)
13.10.2013 01:38 7,0 C 5,6 C 97 % 1014,9 hPa 0,0 l/m 0 min 0 min 0,0 UV-I 0 W/m 0,0 km/h (0 Bft)
13.10.2013 01:40 6,9 C 5,6 C 97 % 1015,0 hPa 0,0 l/m 0 min 0 min 0,0 UV-I 0 W/m 0,0 km/h (0 Bft)
13.10.2013 01:42 6,9 C 5,6 C 97 % 1015,0 hPa 0,0 l/m 0 min 0 min 0,0 UV-I 0 W/m 0,0 km/h (0 Bft)
13.10.2013 01:44 6,9 C 5,6 C 97 % 1015,0 hPa 0,0 l/m 0 min 0 min 0,0 UV-I 0 W/m 0,0 km/h (0 Bft)
13.10.2013 01:46 6,9 C 5,6 C 97 % 1015,0 hPa 0,0 l/m 0 min 0 min 0,0 UV-I 0 W/m 0,0 km/h (0 Bft)
13.10.2013 01:48 6,9 C 5,6 C 97 % 1015,0 hPa 0,0 l/m 0 min 0 min 0,0 UV-I 0 W/m 0,0 km/h (0 Bft)
13.10.2013 01:50 6,9 C 5,6 C 97 % 1015,1 hPa 0,0 l/m 0 min 0 min 0,0 UV-I 0 W/m 0,0 km/h (0 Bft)
13.10.2013 01:52 6,9 C 5,6 C 97 % 1015,1 hPa 0,0 l/m 0 min 0 min 0,0 UV-I 0 W/m 0,0 km/h (0 Bft)
13.10.2013 01:54 6,9 C 5,6 C 97 % 1015,1 hPa 0,0 l/m 0 min 0 min 0,0 UV-I 0 W/m 0,0 km/h (0 Bft)
13.10.2013 01:56 6,9 C 5,6 C 97 % 1015,1 hPa 0,0 l/m 0 min 0 min 0,0 UV-I 0 W/m 0,0 km/h (0 Bft)
13.10.2013 01:58 6,9 C 5,6 C 97 % 1015,1 hPa 0,0 l/m 0 min 0 min 0,0 UV-I 0 W/m 0,0 km/h (0 Bft)
13.10.2013 02:00 6,9 C 5,6 C 97 % 1015,2 hPa 0,0 l/m 0 min 0 min 0,0 UV-I 0 W/m 0,0 km/h (0 Bft)
13.10.2013 02:02 6,8 C 5,6 C 97 % 1015,1 hPa 0,0 l/m 0 min 0 min 0,0 UV-I 0 W/m 0,0 km/h (0 Bft)
13.10.2013 02:06 6,8 C 5,6 C 97 % 1015,1 hPa 0,0 l/m 0 min 0 min 0,0 UV-I 0 W/m 0,0 km/h (0 Bft)
13.10.2013 02:08 6,8 C 5,6 C 97 % 1015,1 hPa 0,0 l/m 0 min 0 min 0,0 UV-I 0 W/m 0,0 km/h (0 Bft)
13.10.2013 02:10 6,8 C 5,6 C 97 % 1015,1 hPa 0,0 l/m 0 min 0 min 0,0 UV-I 0 W/m 0,0 km/h (0 Bft)
13.10.2013 02:12 6,8 C 5,6 C 97 % 1015,0 hPa 0,0 l/m 0 min 0 min 0,0 UV-I 0 W/m 0,0 km/h (0 Bft)
13.10.2013 02:14 6,8 C 5,6 C 97 % 1015,0 hPa 0,0 l/m 0 min 0 min 0,0 UV-I 0 W/m 0,0 km/h (0 Bft)
13.10.2013 02:16 6,8 C 5,6 C 97 % 1015,0 hPa 0,0 l/m 0 min 0 min 0,0 UV-I 0 W/m 0,0 km/h (0 Bft)
13.10.2013 02:18 6,8 C 5,6 C 97 % 1014,9 hPa 0,0 l/m 0 min 0 min 0,0 UV-I 0 W/m 0,0 km/h (0 Bft)
13.10.2013 02:20 6,8 C 5,6 C 97 % 1014,9 hPa 0,0 l/m 0 min 0 min 0,0 UV-I 0 W/m 0,0 km/h (0 Bft)
13.10.2013 02:22 6,8 C 5,6 C 97 % 1014,9 hPa 0,0 l/m 0 min 0 min 0,0 UV-I 0 W/m 0,0 km/h (0 Bft)
13.10.2013 02:24 6,8 C 5,6 C 97 % 1015,0 hPa 0,0 l/m 0 min 0 min 0,0 UV-I 0 W/m 0,0 km/h (0 Bft)
13.10.2013 02:26 6,8 C 5,6 C 97 % 1014,9 hPa 0,0 l/m 0 min 0 min 0,0 UV-I 0 W/m 2,6 km/h (1 Bft)
13.10.2013 02:28 6,8 C 5,6 C 97 % 1014,9 hPa 0,0 l/m 0 min 2 min 0,0 UV-I 0 W/m 0,0 km/h (0 Bft)
13.10.2013 02:30 6,8 C 5,6 C 97 % 1014,8 hPa 0,0 l/m 0 min 0 min 0,0 UV-I 0 W/m 0,0 km/h (0 Bft)
13.10.2013 02:32 6,8 C 5,6 C 97 % 1014,8 hPa 0,0 l/m 0 min 0 min 0,0 UV-I 0 W/m 0,0 km/h (0 Bft)
13.10.2013 02:34 6,8 C 5,6 C 97 % 1014,8 hPa 0,0 l/m 0 min 0 min 0,0 UV-I 0 W/m 0,0 km/h (0 Bft)
13.10.2013 02:36 6,8 C 5,6 C 97 % 1014,7 hPa 0,0 l/m 0 min 0 min 0,0 UV-I 0 W/m 0,0 km/h (0 Bft)
13.10.2013 02:38 6,8 C 5,6 C 97 % 1014,7 hPa 0,0 l/m 0 min 0 min 0,0 UV-I 0 W/m 10,3 km/h (2 Bft)
13.10.2013 02:40 6,8 C 5,6 C 97 % 1014,6 hPa 0,0 l/m 0 min 0 min 0,0 UV-I 0 W/m 0,0 km/h (0 Bft)
13.10.2013 02:42 6,8 C 5,6 C 97 % 1014,6 hPa 0,0 l/m 0 min 0 min 0,0 UV-I 0 W/m 5,1 km/h (1 Bft)
13.10.2013 02:44 6,8 C 5,6 C 97 % 1014,6 hPa 0,0 l/m 0 min 0 min 0,0 UV-I 0 W/m 0,0 km/h (0 Bft)
13.10.2013 02:46 6,8 C 5,6 C 97 % 1014,5 hPa 0,0 l/m 0 min 0 min 0,0 UV-I 0 W/m 10,3 km/h (2 Bft)
13.10.2013 02:48 6,8 C 5,6 C 97 % 1014,5 hPa 0,0 l/m 0 min 0 min 0,0 UV-I 0 W/m 15,4 km/h (3 Bft)
13.10.2013 02:50 6,8 C 5,6 C 97 % 1014,5 hPa 0,0 l/m 0 min 0 min 0,0 UV-I 0 W/m 5,1 km/h (1 Bft)
13.10.2013 02:52 6,8 C 5,6 C 97 % 1014,5 hPa 0,0 l/m 0 min 0 min 0,0 UV-I 0 W/m 10,3 km/h (2 Bft)
13.10.2013 02:54 6,8 C 5,6 C 97 % 1014,4 hPa 0,0 l/m 0 min 2 min 0,0 UV-I 0 W/m 0,0 km/h (0 Bft)
13.10.2013 02:56 6,8 C 5,6 C 97 % 1014,5 hPa 0,0 l/m 0 min 0 min 0,0 UV-I 0 W/m 2,6 km/h (1 Bft)
13.10.2013 02:58 6,8 C 5,6 C 97 % 1014,4 hPa 0,0 l/m 0 min 0 min 0,0 UV-I 0 W/m 5,1 km/h (1 Bft)
13.10.2013 03:00 6,8 C 5,6 C 97 % 1014,4 hPa 0,0 l/m 0 min 0 min 0,0 UV-I 0 W/m 2,6 km/h (1 Bft)
13.10.2013 03:02 6,8 C 5,6 C 97 % 1014,4 hPa 0,0 l/m 0 min 0 min 0,0 UV-I 0 W/m 2,6 km/h (1 Bft)
13.10.2013 03:06 6,8 C 5,6 C 97 % 1014,4 hPa 0,0 l/m 0 min 2 min 0,0 UV-I 0 W/m 10,3 km/h (2 Bft)
13.10.2013 03:08 6,8 C 5,6 C 97 % 1014,4 hPa 0,0 l/m 0 min 2 min 0,0 UV-I 0 W/m 7,7 km/h (2 Bft)
13.10.2013 03:10 6,8 C 5,6 C 97 % 1014,5 hPa 0,0 l/m 0 min 2 min 0,0 UV-I 0 W/m 7,7 km/h (2 Bft)
13.10.2013 03:12 6,8 C 5,6 C 97 % 1014,5 hPa 0,0 l/m 0 min 2 min 0,0 UV-I 0 W/m 2,6 km/h (1 Bft)
13.10.2013 03:14 6,8 C 5,6 C 97 % 1014,5 hPa 0,0 l/m 0 min 2 min 0,0 UV-I 0 W/m 0,0 km/h (0 Bft)
13.10.2013 03:16 6,8 C 5,6 C 97 % 1014,4 hPa 0,0 l/m 0 min 2 min 0,0 UV-I 0 W/m 5,1 km/h (1 Bft)
13.10.2013 03:18 6,8 C 5,6 C 97 % 1014,4 hPa 0,0 l/m 0 min 2 min 0,0 UV-I 0 W/m 7,7 km/h (2 Bft)
13.10.2013 03:20 6,8 C 5,6 C 97 % 1014,5 hPa 0,0 l/m 0 min 2 min 0,0 UV-I 0 W/m 0,0 km/h (0 Bft)
13.10.2013 03:22 6,8 C 5,6 C 97 % 1014,4 hPa 0,0 l/m 0 min 2 min 0,0 UV-I 0 W/m 5,1 km/h (1 Bft)
13.10.2013 03:24 6,8 C 5,6 C 97 % 1014,4 hPa 0,0 l/m 0 min 2 min 0,0 UV-I 0 W/m 5,1 km/h (1 Bft)
13.10.2013 03:26 6,8 C 5,6 C 97 % 1014,4 hPa 0,2 l/m 0 min 2 min 0,0 UV-I 0 W/m 2,6 km/h (1 Bft)
13.10.2013 03:28 6,8 C 5,6 C 97 % 1014,5 hPa 0,0 l/m 0 min 0 min 0,0 UV-I 0 W/m 0,0 km/h (0 Bft)
13.10.2013 03:30 6,8 C 5,6 C 97 % 1014,4 hPa 0,0 l/m 0 min 0 min 0,0 UV-I 0 W/m 0,0 km/h (0 Bft)
13.10.2013 03:32 6,8 C 5,6 C 97 % 1014,4 hPa 0,0 l/m 0 min 2 min 0,0 UV-I 0 W/m 2,6 km/h (1 Bft)
13.10.2013 03:34 6,8 C 5,6 C 97 % 1014,4 hPa 0,0 l/m 0 min 0 min 0,0 UV-I 0 W/m 7,7 km/h (2 Bft)
13.10.2013 03:36 6,8 C 5,6 C 97 % 1014,5 hPa 0,0 l/m 0 min 0 min 0,0 UV-I 0 W/m 7,7 km/h (2 Bft)
13.10.2013 03:38 6,8 C 5,6 C 97 % 1014,4 hPa 0,0 l/m 0 min 0 min 0,0 UV-I 0 W/m 0,0 km/h (0 Bft)
13.10.2013 03:40 6,8 C 5,6 C 97 % 1014,4 hPa 0,0 l/m 0 min 0 min 0,0 UV-I 0 W/m 0,0 km/h (0 Bft)
13.10.2013 03:42 6,8 C 5,6 C 97 % 1014,5 hPa 0,0 l/m 0 min 0 min 0,0 UV-I 0 W/m 0,0 km/h (0 Bft)
13.10.2013 03:44 6,8 C 5,6 C 97 % 1014,5 hPa 0,0 l/m 0 min 0 min 0,0 UV-I 0 W/m 2,6 km/h (1 Bft)
13.10.2013 03:46 6,8 C 5,6 C 97 % 1014,5 hPa 0,0 l/m 0 min 0 min 0,0 UV-I 0 W/m 0,0 km/h (0 Bft)
13.10.2013 03:48 6,8 C 5,6 C 97 % 1014,4 hPa 0,0 l/m 0 min 0 min 0,0 UV-I 0 W/m 7,7 km/h (2 Bft)
13.10.2013 03:50 6,8 C 5,6 C 97 % 1014,4 hPa 0,0 l/m 0 min 0 min 0,0 UV-I 0 W/m 2,6 km/h (1 Bft)
13.10.2013 03:52 6,8 C 5,6 C 97 % 1014,4 hPa 0,0 l/m 0 min 0 min 0,0 UV-I 0 W/m 5,1 km/h (1 Bft)
13.10.2013 03:54 6,8 C 5,6 C 97 % 1014,4 hPa 0,0 l/m 0 min 0 min 0,0 UV-I 0 W/m 7,7 km/h (2 Bft)
13.10.2013 03:56 6,8 C 5,6 C 97 % 1014,3 hPa 0,0 l/m 0 min 0 min 0,0 UV-I 0 W/m 7,7 km/h (2 Bft)
13.10.2013 03:58 6,8 C 5,6 C 97 % 1014,3 hPa 0,0 l/m 0 min 0 min 0,0 UV-I 0 W/m 10,3 km/h (2 Bft)
13.10.2013 04:00 6,7 C 5,6 C 97 % 1014,3 hPa 0,0 l/m 0 min 0 min 0,0 UV-I 0 W/m 5,1 km/h (1 Bft)
13.10.2013 04:02 6,7 C 5,6 C 97 % 1014,3 hPa 0,0 l/m 0 min 0 min 0,0 UV-I 0 W/m 2,6 km/h (1 Bft)
13.10.2013 04:06 6,7 C 5,6 C 97 % 1014,4 hPa 0,0 l/m 0 min 0 min 0,0 UV-I 0 W/m 5,1 km/h (1 Bft)
13.10.2013 04:08 6,7 C 5,6 C 97 % 1014,4 hPa 0,0 l/m 0 min 0 min 0,0 UV-I 0 W/m 7,7 km/h (2 Bft)
13.10.2013 04:10 6,7 C 5,6 C 97 % 1014,4 hPa 0,0 l/m 0 min 0 min 0,0 UV-I 0 W/m 7,7 km/h (2 Bft)
13.10.2013 04:12 6,8 C 5,6 C 97 % 1014,4 hPa 0,0 l/m 0 min 0 min 0,0 UV-I 0 W/m 10,3 km/h (2 Bft)
13.10.2013 04:14 6,8 C 5,6 C 97 % 1014,4 hPa 0,0 l/m 0 min 0 min 0,0 UV-I 0 W/m 0,0 km/h (0 Bft)
13.10.2013 04:16 6,8 C 5,6 C 97 % 1014,5 hPa 0,0 l/m 0 min 0 min 0,0 UV-I 0 W/m 0,0 km/h (0 Bft)
13.10.2013 04:18 6,8 C 5,6 C 97 % 1014,4 hPa 0,0 l/m 0 min 0 min 0,0 UV-I 0 W/m 0,0 km/h (0 Bft)
13.10.2013 04:20 6,8 C 5,6 C 97 % 1014,5 hPa 0,0 l/m 0 min 0 min 0,0 UV-I 0 W/m 10,3 km/h (2 Bft)
13.10.2013 04:22 6,8 C 5,6 C 97 % 1014,5 hPa 0,0 l/m 0 min 0 min 0,0 UV-I 0 W/m 5,1 km/h (1 Bft)
13.10.2013 04:24 6,9 C 5,6 C 97 % 1014,5 hPa 0,0 l/m 0 min 0 min 0,0 UV-I 0 W/m 0,0 km/h (0 Bft)
13.10.2013 04:26 6,9 C 5,6 C 97 % 1014,4 hPa 0,0 l/m 0 min 0 min 0,0 UV-I 0 W/m 0,0 km/h (0 Bft)
13.10.2013 04:28 6,9 C 5,6 C 97 % 1014,4 hPa 0,0 l/m 0 min 0 min 0,0 UV-I 0 W/m 2,6 km/h (1 Bft)
13.10.2013 04:30 6,9 C 5,6 C 97 % 1014,4 hPa 0,0 l/m 0 min 0 min 0,0 UV-I 0 W/m 10,3 km/h (2 Bft)
13.10.2013 04:32 6,9 C 5,6 C 97 % 1014,4 hPa 0,0 l/m 0 min 0 min 0,0 UV-I 0 W/m 0,0 km/h (0 Bft)
13.10.2013 04:34 6,9 C 5,6 C 97 % 1014,5 hPa 0,0 l/m 0 min 0 min 0,0 UV-I 0 W/m 12,9 km/h (3 Bft)
13.10.2013 04:36 6,9 C 5,6 C 97 % 1014,5 hPa 0,0 l/m 0 min 0 min 0,0 UV-I 0 W/m 2,6 km/h (1 Bft)
13.10.2013 04:38 7,0 C 6,1 C 97 % 1014,5 hPa 0,0 l/m 0 min 0 min 0,0 UV-I 0 W/m 0,0 km/h (0 Bft)
13.10.2013 04:40 7,0 C 6,1 C 97 % 1014,5 hPa 0,0 l/m 0 min 0 min 0,0 UV-I 0 W/m 0,0 km/h (0 Bft)
13.10.2013 04:42 7,0 C 6,1 C 97 % 1014,5 hPa 0,0 l/m 0 min 0 min 0,0 UV-I 0 W/m 5,1 km/h (1 Bft)
13.10.2013 04:44 7,1 C 6,1 C 97 % 1014,5 hPa 0,0 l/m 0 min 2 min 0,0 UV-I 0 W/m 0,0 km/h (0 Bft)
13.10.2013 04:46 7,1 C 6,1 C 97 % 1014,6 hPa 0,0 l/m 0 min 2 min 0,0 UV-I 0 W/m 0,0 km/h (0 Bft)
13.10.2013 04:48 7,1 C 6,1 C 97 % 1014,6 hPa 0,0 l/m 0 min 2 min 0,0 UV-I 0 W/m 0,0 km/h (0 Bft)
13.10.2013 04:50 7,1 C 6,1 C 97 % 1014,5 hPa 0,0 l/m 0 min 2 min 0,0 UV-I 0 W/m 2,6 km/h (1 Bft)
13.10.2013 04:52 7,2 C 6,1 C 97 % 1014,5 hPa 0,0 l/m 0 min 2 min 0,0 UV-I 0 W/m 5,1 km/h (1 Bft)
13.10.2013 04:54 7,2 C 6,1 C 97 % 1014,5 hPa 0,0 l/m 0 min 0 min 0,0 UV-I 0 W/m 5,1 km/h (1 Bft)
13.10.2013 04:56 7,2 C 6,1 C 97 % 1014,4 hPa 0,0 l/m 0 min 2 min 0,0 UV-I 0 W/m 5,1 km/h (1 Bft)
13.10.2013 04:58 7,2 C 6,1 C 97 % 1014,5 hPa 0,0 l/m 0 min 2 min 0,0 UV-I 0 W/m 7,7 km/h (2 Bft)
13.10.2013 05:00 7,2 C 6,1 C 97 % 1014,5 hPa 0,0 l/m 0 min 2 min 0,0 UV-I 0 W/m 7,7 km/h (2 Bft)
13.10.2013 05:02 7,2 C 6,1 C 97 % 1014,5 hPa 0,0 l/m 0 min 0 min 0,0 UV-I 0 W/m 0,0 km/h (0 Bft)
13.10.2013 05:06 7,2 C 6,1 C 97 % 1014,5 hPa 0,0 l/m 0 min 0 min 0,0 UV-I 0 W/m 5,1 km/h (1 Bft)
13.10.2013 05:08 7,2 C 6,1 C 97 % 1014,5 hPa 0,0 l/m 0 min 0 min 0,0 UV-I 0 W/m 0,0 km/h (0 Bft)
13.10.2013 05:10 7,2 C 6,1 C 97 % 1014,5 hPa 0,0 l/m 0 min 0 min 0,0 UV-I 0 W/m 18,0 km/h (3 Bft)
13.10.2013 05:12 7,2 C 6,1 C 97 % 1014,5 hPa 0,0 l/m 0 min 0 min 0,0 UV-I 0 W/m 5,1 km/h (1 Bft)
13.10.2013 05:14 7,2 C 6,1 C 97 % 1014,5 hPa 0,0 l/m 0 min 0 min 0,0 UV-I 0 W/m 2,6 km/h (1 Bft)
13.10.2013 05:16 7,2 C 6,1 C 97 % 1014,5 hPa 0,0 l/m 0 min 0 min 0,0 UV-I 0 W/m 5,1 km/h (1 Bft)
13.10.2013 05:18 7,2 C 6,1 C 97 % 1014,5 hPa 0,0 l/m 0 min 0 min 0,0 UV-I 0 W/m 7,7 km/h (2 Bft)
13.10.2013 05:20 7,2 C 6,1 C 97 % 1014,5 hPa 0,0 l/m 0 min 0 min 0,0 UV-I 0 W/m 7,7 km/h (2 Bft)
13.10.2013 05:22 7,2 C 6,1 C 97 % 1014,5 hPa 0,0 l/m 0 min 0 min 0,0 UV-I 0 W/m 10,3 km/h (2 Bft)
13.10.2013 05:24 7,2 C 6,1 C 97 % 1014,5 hPa 0,0 l/m 0 min 0 min 0,0 UV-I 0 W/m 7,7 km/h (2 Bft)
13.10.2013 05:26 7,2 C 6,1 C 96 % 1014,5 hPa 0,0 l/m 0 min 0 min 0,0 UV-I 0 W/m 2,6 km/h (1 Bft)
13.10.2013 05:28 7,2 C 6,1 C 96 % 1014,5 hPa 0,0 l/m 0 min 0 min 0,0 UV-I 0 W/m 5,1 km/h (1 Bft)
13.10.2013 05:30 7,2 C 6,1 C 96 % 1014,5 hPa 0,0 l/m 0 min 0 min 0,0 UV-I 0 W/m 10,3 km/h (2 Bft)
13.10.2013 05:32 7,1 C 6,1 C 96 % 1014,5 hPa 0,0 l/m 0 min 0 min 0,0 UV-I 0 W/m 10,3 km/h (2 Bft)
13.10.2013 05:34 7,1 C 6,1 C 96 % 1014,5 hPa 0,0 l/m 0 min 0 min 0,0 UV-I 0 W/m 5,1 km/h (1 Bft)
13.10.2013 05:36 7,1 C 6,1 C 96 % 1014,5 hPa 0,0 l/m 0 min 0 min 0,0 UV-I 0 W/m 10,3 km/h (2 Bft)
13.10.2013 05:38 7,1 C 5,6 C 96 % 1014,5 hPa 0,0 l/m 0 min 2 min 0,0 UV-I 0 W/m 10,3 km/h (2 Bft)
13.10.2013 05:40 7,1 C 6,1 C 96 % 1014,5 hPa 0,0 l/m 0 min 2 min 0,0 UV-I 0 W/m 0,0 km/h (0 Bft)
13.10.2013 05:42 7,1 C 5,6 C 96 % 1014,4 hPa 0,0 l/m 0 min 0 min 0,0 UV-I 0 W/m 5,1 km/h (1 Bft)
13.10.2013 05:44 7,1 C 5,6 C 96 % 1014,4 hPa 0,0 l/m 0 min 0 min 0,0 UV-I 0 W/m 0,0 km/h (0 Bft)
13.10.2013 05:46 7,0 C 5,6 C 96 % 1014,4 hPa 0,0 l/m 0 min 2 min 0,0 UV-I 0 W/m 2,6 km/h (1 Bft)
13.10.2013 05:48 7,0 C 5,6 C 96 % 1014,4 hPa 0,0 l/m 0 min 2 min 0,0 UV-I 0 W/m 0,0 km/h (0 Bft)
13.10.2013 05:50 6,9 C 5,6 C 96 % 1014,4 hPa 0,0 l/m 0 min 0 min 0,0 UV-I 0 W/m 10,3 km/h (2 Bft)
13.10.2013 05:52 6,9 C 5,6 C 96 % 1014,4 hPa 0,0 l/m 0 min 0 min 0,0 UV-I 0 W/m 2,6 km/h (1 Bft)
13.10.2013 05:54 6,9 C 5,6 C 96 % 1014,4 hPa 0,0 l/m 0 min 0 min 0,0 UV-I 0 W/m 0,0 km/h (0 Bft)
13.10.2013 05:56 6,9 C 5,6 C 96 % 1014,4 hPa 0,0 l/m 0 min 0 min 0,0 UV-I 0 W/m 5,1 km/h (1 Bft)
13.10.2013 05:58 6,9 C 5,6 C 96 % 1014,5 hPa 0,0 l/m 0 min 0 min 0,0 UV-I 0 W/m 10,3 km/h (2 Bft)
13.10.2013 06:00 6,9 C 5,6 C 96 % 1014,4 hPa 0,0 l/m 0 min 0 min 0,0 UV-I 0 W/m 0,0 km/h (0 Bft)
13.10.2013 06:02 6,9 C 5,6 C 96 % 1014,5 hPa 0,0 l/m 0 min 0 min 0,0 UV-I 0 W/m 2,6 km/h (1 Bft)
13.10.2013 06:06 6,8 C 5,6 C 96 % 1014,5 hPa 0,0 l/m 0 min 0 min 0,0 UV-I 0 W/m 15,4 km/h (3 Bft)
13.10.2013 06:08 6,8 C 5,6 C 96 % 1014,4 hPa 0,0 l/m 0 min 0 min 0,0 UV-I 0 W/m 2,6 km/h (1 Bft)
13.10.2013 06:10 6,8 C 5,6 C 96 % 1014,4 hPa 0,0 l/m 0 min 0 min 0,0 UV-I 0 W/m 2,6 km/h (1 Bft)
13.10.2013 06:12 6,8 C 5,6 C 96 % 1014,5 hPa 0,0 l/m 0 min 0 min 0,0 UV-I 0 W/m 7,7 km/h (2 Bft)
13.10.2013 06:14 6,8 C 5,6 C 96 % 1014,4 hPa 0,0 l/m 0 min 2 min 0,0 UV-I 0 W/m 7,7 km/h (2 Bft)
13.10.2013 06:16 6,8 C 5,6 C 97 % 1014,5 hPa 0,0 l/m 0 min 2 min 0,0 UV-I 0 W/m 10,3 km/h (2 Bft)
13.10.2013 06:18 6,8 C 5,6 C 97 % 1014,5 hPa 0,0 l/m 0 min 2 min 0,0 UV-I 0 W/m 0,0 km/h (0 Bft)
13.10.2013 06:20 6,8 C 5,6 C 97 % 1014,5 hPa 0,0 l/m 0 min 2 min 0,0 UV-I 0 W/m 0,0 km/h (0 Bft)
13.10.2013 06:22 6,8 C 5,6 C 97 % 1014,5 hPa 0,0 l/m 0 min 2 min 0,0 UV-I 0 W/m 12,9 km/h (3 Bft)
13.10.2013 06:24 6,8 C 5,6 C 97 % 1014,5 hPa 0,0 l/m 0 min 2 min 0,0 UV-I 0 W/m 2,6 km/h (1 Bft)
13.10.2013 06:26 6,8 C 5,6 C 97 % 1014,5 hPa 0,0 l/m 0 min 2 min 0,0 UV-I 0 W/m 7,7 km/h (2 Bft)
13.10.2013 06:28 6,8 C 5,6 C 97 % 1014,5 hPa 0,2 l/m 0 min 2 min 0,0 UV-I 0 W/m 7,7 km/h (2 Bft)
13.10.2013 06:30 6,8 C 5,6 C 97 % 1014,4 hPa 0,0 l/m 0 min 2 min 0,0 UV-I 0 W/m 5,1 km/h (1 Bft)
13.10.2013 06:32 6,8 C 5,6 C 96 % 1014,4 hPa 0,0 l/m 0 min 2 min 0,0 UV-I 0 W/m 7,7 km/h (2 Bft)
13.10.2013 06:34 6,8 C 5,6 C 96 % 1014,4 hPa 0,0 l/m 0 min 2 min 0,0 UV-I 0 W/m 12,9 km/h (3 Bft)
13.10.2013 06:36 6,8 C 5,6 C 97 % 1014,3 hPa 0,0 l/m 0 min 2 min 0,0 UV-I 0 W/m 5,1 km/h (1 Bft)
13.10.2013 06:38 6,8 C 5,6 C 97 % 1014,3 hPa 0,0 l/m 0 min 2 min 0,0 UV-I 0 W/m 7,7 km/h (2 Bft)
13.10.2013 06:40 6,8 C 5,6 C 97 % 1014,4 hPa 0,0 l/m 0 min 2 min 0,0 UV-I 0 W/m 2,6 km/h (1 Bft)
13.10.2013 06:42 6,8 C 5,6 C 97 % 1014,3 hPa 0,0 l/m 0 min 2 min 0,0 UV-I 0 W/m 7,7 km/h (2 Bft)
13.10.2013 06:44 6,8 C 5,6 C 97 % 1014,3 hPa 0,2 l/m 0 min 2 min 0,0 UV-I 0 W/m 7,7 km/h (2 Bft)
13.10.2013 06:46 6,8 C 5,6 C 97 % 1014,3 hPa 0,0 l/m 0 min 2 min 0,0 UV-I 0 W/m 0,0 km/h (0 Bft)
13.10.2013 06:48 6,8 C 5,6 C 97 % 1014,2 hPa 0,0 l/m 0 min 2 min 0,0 UV-I 0 W/m 0,0 km/h (0 Bft)
13.10.2013 06:50 6,8 C 5,6 C 97 % 1014,3 hPa 0,0 l/m 0 min 2 min 0,0 UV-I 0 W/m 7,7 km/h (2 Bft)
13.10.2013 06:52 6,8 C 5,6 C 97 % 1014,3 hPa 0,0 l/m 0 min 2 min 0,0 UV-I 0 W/m 5,1 km/h (1 Bft)
13.10.2013 06:54 6,8 C 5,6 C 97 % 1014,3 hPa 0,0 l/m 0 min 2 min 0,0 UV-I 0 W/m 7,7 km/h (2 Bft)
13.10.2013 06:56 6,8 C 5,6 C 97 % 1014,3 hPa 0,0 l/m 0 min 2 min 0,0 UV-I 0 W/m 15,4 km/h (3 Bft)
13.10.2013 06:58 6,9 C 5,6 C 97 % 1014,3 hPa 0,0 l/m 0 min 2 min 0,0 UV-I 0 W/m 10,3 km/h (2 Bft)
13.10.2013 07:00 6,9 C 5,6 C 97 % 1014,3 hPa 0,0 l/m 0 min 2 min 0,0 UV-I 0 W/m 10,3 km/h (2 Bft)
13.10.2013 07:02 6,9 C 5,6 C 97 % 1014,3 hPa 0,0 l/m 0 min 2 min 0,0 UV-I 0 W/m 10,3 km/h (2 Bft)
13.10.2013 07:06 6,9 C 5,6 C 97 % 1014,3 hPa 0,0 l/m 0 min 2 min 0,0 UV-I 0 W/m 10,3 km/h (2 Bft)
13.10.2013 07:08 6,9 C 5,6 C 97 % 1014,3 hPa 0,0 l/m 0 min 2 min 0,0 UV-I 0 W/m 7,7 km/h (2 Bft)
13.10.2013 07:10 6,9 C 5,6 C 97 % 1014,3 hPa 0,0 l/m 0 min 2 min 0,0 UV-I 0 W/m 12,9 km/h (3 Bft)
13.10.2013 07:12 6,9 C 6,1 C 97 % 1014,2 hPa 0,0 l/m 0 min 2 min 0,0 UV-I 0 W/m 7,7 km/h (2 Bft)
13.10.2013 07:14 6,9 C 6,1 C 97 % 1014,2 hPa 0,2 l/m 0 min 2 min 0,0 UV-I 0 W/m 5,1 km/h (1 Bft)
13.10.2013 07:16 6,9 C 5,6 C 97 % 1014,2 hPa 0,0 l/m 0 min 2 min 0,0 UV-I 0 W/m 7,7 km/h (2 Bft)
13.10.2013 07:18 6,9 C 5,6 C 97 % 1014,2 hPa 0,0 l/m 0 min 2 min 0,0 UV-I 0 W/m 12,9 km/h (3 Bft)
13.10.2013 07:20 6,9 C 5,6 C 97 % 1014,1 hPa 0,0 l/m 0 min 2 min 0,0 UV-I 0 W/m 10,3 km/h (2 Bft)
13.10.2013 07:22 6,9 C 5,6 C 97 % 1014,1 hPa 0,0 l/m 0 min 2 min 0,0 UV-I 0 W/m 7,7 km/h (2 Bft)
13.10.2013 07:24 6,9 C 5,6 C 97 % 1014,1 hPa 0,0 l/m 0 min 2 min 0,0 UV-I 0 W/m 10,3 km/h (2 Bft)
13.10.2013 07:26 6,9 C 5,6 C 97 % 1014,1 hPa 0,0 l/m 0 min 2 min 0,0 UV-I 0 W/m 7,7 km/h (2 Bft)
13.10.2013 07:28 6,9 C 5,6 C 97 % 1014,1 hPa 0,0 l/m 0 min 2 min 0,0 UV-I 0 W/m 15,4 km/h (3 Bft)
13.10.2013 07:30 6,9 C 5,6 C 97 % 1014,1 hPa 0,0 l/m 0 min 2 min 0,0 UV-I 0 W/m 15,4 km/h (3 Bft)
13.10.2013 07:32 6,9 C 5,6 C 97 % 1014,1 hPa 0,0 l/m 0 min 2 min 0,0 UV-I 0 W/m 12,9 km/h (3 Bft)
13.10.2013 07:34 6,9 C 5,6 C 97 % 1014,1 hPa 0,0 l/m 0 min 2 min 0,0 UV-I 0 W/m 5,1 km/h (1 Bft)
13.10.2013 07:36 6,9 C 5,6 C 97 % 1014,1 hPa 0,0 l/m 0 min 2 min 0,0 UV-I 0 W/m 2,6 km/h (1 Bft)
13.10.2013 07:38 6,9 C 5,6 C 97 % 1014,1 hPa 0,0 l/m 0 min 2 min 0,0 UV-I 0 W/m 12,9 km/h (3 Bft)
13.10.2013 07:40 6,9 C 5,6 C 97 % 1014,1 hPa 0,2 l/m 0 min 0 min 0,0 UV-I 0 W/m 12,9 km/h (3 Bft)
13.10.2013 07:42 6,9 C 5,6 C 97 % 1014,1 hPa 0,0 l/m 0 min 0 min 0,0 UV-I 0 W/m 12,9 km/h (3 Bft)
13.10.2013 07:44 6,9 C 5,6 C 97 % 1014,1 hPa 0,0 l/m 0 min 2 min 0,0 UV-I 0 W/m 12,9 km/h (3 Bft)
13.10.2013 07:46 7,0 C 5,6 C 97 % 1014,1 hPa 0,0 l/m 0 min 2 min 0,0 UV-I 0 W/m 15,4 km/h (3 Bft)
13.10.2013 07:48 7,0 C 6,1 C 97 % 1014,2 hPa 0,0 l/m 0 min 2 min 0,0 UV-I 0 W/m 12,9 km/h (3 Bft)
13.10.2013 07:50 7,0 C 6,1 C 97 % 1014,2 hPa 0,0 l/m 0 min 2 min 0,0 UV-I 0 W/m 10,3 km/h (2 Bft)
13.10.2013 07:52 7,0 C 6,1 C 97 % 1014,2 hPa 0,0 l/m 0 min 2 min 0,0 UV-I 0 W/m 15,4 km/h (3 Bft)
13.10.2013 07:54 7,0 C 6,1 C 97 % 1014,2 hPa 0,0 l/m 0 min 2 min 0,0 UV-I 0 W/m 15,4 km/h (3 Bft)
13.10.2013 07:56 7,0 C 6,1 C 97 % 1014,2 hPa 0,0 l/m 0 min 2 min 0,0 UV-I 0 W/m 10,3 km/h (2 Bft)
13.10.2013 07:58 7,0 C 6,1 C 97 % 1014,3 hPa 0,0 l/m 0 min 2 min 0,0 UV-I 0 W/m 10,3 km/h (2 Bft)
13.10.2013 08:00 7,0 C 6,1 C 97 % 1014,2 hPa 0,0 l/m 0 min 2 min 0,0 UV-I 0 W/m 12,9 km/h (3 Bft)
13.10.2013 08:02 7,1 C 6,1 C 97 % 1014,3 hPa 0,0 l/m 0 min 2 min 0,0 UV-I 7 W/m 15,4 km/h (3 Bft)
13.10.2013 08:06 7,1 C 6,1 C 97 % 1014,3 hPa 0,0 l/m 0 min 2 min 0,0 UV-I 12 W/m 23,2 km/h (4 Bft)
13.10.2013 08:08 7,1 C 6,1 C 97 % 1014,3 hPa 0,0 l/m 0 min 2 min 0,0 UV-I 16 W/m 15,4 km/h (3 Bft)
13.10.2013 08:10 7,1 C 6,1 C 97 % 1014,3 hPa 0,0 l/m 0 min 2 min 0,0 UV-I 18 W/m 15,4 km/h (3 Bft)
13.10.2013 08:12 7,1 C 6,1 C 97 % 1014,3 hPa 0,2 l/m 0 min 2 min 0,0 UV-I 25 W/m 18,0 km/h (3 Bft)
13.10.2013 08:14 7,1 C 6,1 C 97 % 1014,3 hPa 0,0 l/m 0 min 2 min 0,0 UV-I 26 W/m 12,9 km/h (3 Bft)
13.10.2013 08:16 7,1 C 6,1 C 97 % 1014,3 hPa 0,0 l/m 0 min 2 min 0,0 UV-I 28 W/m 10,3 km/h (2 Bft)
13.10.2013 08:18 7,1 C 6,1 C 97 % 1014,4 hPa 0,0 l/m 0 min 2 min 0,0 UV-I 25 W/m 2,6 km/h (1 Bft)
13.10.2013 08:20 7,1 C 6,1 C 97 % 1014,3 hPa 0,0 l/m 0 min 2 min 0,0 UV-I 25 W/m 15,4 km/h (3 Bft)
13.10.2013 08:22 7,1 C 6,1 C 97 % 1014,4 hPa 0,0 l/m 0 min 2 min 0,0 UV-I 30 W/m 10,3 km/h (2 Bft)
13.10.2013 08:24 7,1 C 6,1 C 97 % 1014,4 hPa 0,0 l/m 0 min 2 min 0,0 UV-I 26 W/m 10,3 km/h (2 Bft)
13.10.2013 08:26 7,1 C 6,1 C 97 % 1014,4 hPa 0,0 l/m 0 min 2 min 0,0 UV-I 25 W/m 20,6 km/h (4 Bft)
13.10.2013 08:28 7,1 C 6,1 C 97 % 1014,4 hPa 0,0 l/m 0 min 2 min 0,0 UV-I 21 W/m 0,0 km/h (0 Bft)
13.10.2013 08:30 7,2 C 6,1 C 97 % 1014,5 hPa 0,0 l/m 0 min 2 min 0,0 UV-I 23 W/m 10,3 km/h (2 Bft)
13.10.2013 08:32 7,2 C 6,1 C 97 % 1014,4 hPa 0,0 l/m 0 min 2 min 0,0 UV-I 21 W/m 10,3 km/h (2 Bft)
13.10.2013 08:34 7,2 C 6,1 C 97 % 1014,5 hPa 0,0 l/m 0 min 2 min 0,0 UV-I 18 W/m 15,4 km/h (3 Bft)
13.10.2013 08:36 7,2 C 6,1 C 97 % 1014,5 hPa 0,0 l/m 0 min 2 min 0,0 UV-I 16 W/m 15,4 km/h (3 Bft)
13.10.2013 08:38 7,2 C 6,1 C 97 % 1014,5 hPa 0,0 l/m 0 min 2 min 0,0 UV-I 14 W/m 15,4 km/h (3 Bft)
13.10.2013 08:40 7,2 C 6,1 C 97 % 1014,5 hPa 0,0 l/m 0 min 2 min 0,0 UV-I 14 W/m 15,4 km/h (3 Bft)
13.10.2013 08:42 7,2 C 6,1 C 97 % 1014,5 hPa 0,0 l/m 0 min 2 min 0,0 UV-I 16 W/m 23,2 km/h (4 Bft)
13.10.2013 08:44 7,2 C 6,1 C 97 % 1014,6 hPa 0,2 l/m 0 min 2 min 0,0 UV-I 19 W/m 15,4 km/h (3 Bft)
13.10.2013 08:46 7,2 C 6,1 C 97 % 1014,6 hPa 0,0 l/m 0 min 2 min 0,0 UV-I 25 W/m 5,1 km/h (1 Bft)
13.10.2013 08:48 7,2 C 6,1 C 97 % 1014,5 hPa 0,0 l/m 0 min 2 min 0,0 UV-I 26 W/m 12,9 km/h (3 Bft)
13.10.2013 08:50 7,3 C 6,1 C 97 % 1014,6 hPa 0,0 l/m 0 min 2 min 0,0 UV-I 30 W/m 12,9 km/h (3 Bft)
13.10.2013 08:52 7,3 C 6,1 C 97 % 1014,6 hPa 0,0 l/m 0 min 2 min 0,0 UV-I 33 W/m 15,4 km/h (3 Bft)
13.10.2013 08:54 7,3 C 6,1 C 97 % 1014,6 hPa 0,0 l/m 0 min 2 min 0,0 UV-I 35 W/m 15,4 km/h (3 Bft)
13.10.2013 08:56 7,3 C 6,1 C 97 % 1014,6 hPa 0,0 l/m 0 min 2 min 0,0 UV-I 33 W/m 33,5 km/h (5 Bft)
13.10.2013 08:58 7,3 C 6,1 C 97 % 1014,6 hPa 0,0 l/m 0 min 2 min 0,0 UV-I 32 W/m 20,6 km/h (4 Bft)
13.10.2013 09:00 7,3 C 6,1 C 97 % 1014,6 hPa 0,0 l/m 0 min 2 min 0,0 UV-I 32 W/m 28,3 km/h (4 Bft)
13.10.2013 09:02 7,3 C 6,1 C 97 % 1014,6 hPa 0,0 l/m 0 min 2 min 0,0 UV-I 32 W/m 15,4 km/h (3 Bft)
13.10.2013 09:06 7,3 C 6,1 C 97 % 1014,5 hPa 0,0 l/m 0 min 0 min 0,0 UV-I 33 W/m 15,4 km/h (3 Bft)
13.10.2013 09:08 7,4 C 6,1 C 97 % 1014,6 hPa 0,0 l/m 0 min 0 min 0,0 UV-I 33 W/m 10,3 km/h (2 Bft)
13.10.2013 09:10 7,4 C 6,1 C 97 % 1014,6 hPa 0,0 l/m 0 min 0 min 0,0 UV-I 33 W/m 15,4 km/h (3 Bft)
13.10.2013 09:12 7,4 C 6,1 C 97 % 1014,6 hPa 0,0 l/m 0 min 2 min 0,0 UV-I 33 W/m 20,6 km/h (4 Bft)
13.10.2013 09:14 7,4 C 6,1 C 97 % 1014,6 hPa 0,0 l/m 0 min 2 min 0,0 UV-I 35 W/m 5,1 km/h (1 Bft)
13.10.2013 09:16 7,4 C 6,1 C 97 % 1014,7 hPa 0,0 l/m 0 min 2 min 0,0 UV-I 37 W/m 23,2 km/h (4 Bft)
13.10.2013 09:18 7,4 C 6,1 C 97 % 1014,7 hPa 0,0 l/m 0 min 2 min 0,0 UV-I 37 W/m 0,0 km/h (0 Bft)
13.10.2013 09:20 7,4 C 6,1 C 97 % 1014,7 hPa 0,0 l/m 0 min 0 min 0,0 UV-I 37 W/m 15,4 km/h (3 Bft)
13.10.2013 09:22 7,4 C 6,1 C 97 % 1014,7 hPa 0,0 l/m 0 min 2 min 0,0 UV-I 37 W/m 18,0 km/h (3 Bft)
13.10.2013 09:24 7,4 C 6,1 C 97 % 1014,8 hPa 0,0 l/m 0 min 2 min 0,0 UV-I 35 W/m 7,7 km/h (2 Bft)
13.10.2013 09:26 7,4 C 6,7 C 97 % 1014,8 hPa 0,0 l/m 0 min 2 min 0,0 UV-I 37 W/m 18,0 km/h (3 Bft)
13.10.2013 09:28 7,4 C 6,1 C 97 % 1014,9 hPa 0,0 l/m 0 min 0 min 0,0 UV-I 40 W/m 15,4 km/h (3 Bft)
13.10.2013 09:30 7,5 C 6,7 C 97 % 1014,9 hPa 0,0 l/m 0 min 0 min 0,0 UV-I 40 W/m 15,4 km/h (3 Bft)
13.10.2013 09:32 7,5 C 6,7 C 97 % 1015,0 hPa 0,0 l/m 0 min 2 min 0,0 UV-I 39 W/m 10,3 km/h (2 Bft)
13.10.2013 09:34 7,5 C 6,7 C 97 % 1014,9 hPa 0,0 l/m 0 min 2 min 0,0 UV-I 35 W/m 7,7 km/h (2 Bft)
13.10.2013 09:36 7,5 C 6,7 C 97 % 1014,9 hPa 0,0 l/m 0 min 2 min 0,0 UV-I 33 W/m 20,6 km/h (4 Bft)
13.10.2013 09:38 7,5 C 6,7 C 97 % 1014,9 hPa 0,0 l/m 0 min 2 min 0,0 UV-I 32 W/m 15,4 km/h (3 Bft)
13.10.2013 09:40 7,5 C 6,7 C 97 % 1014,9 hPa 0,2 l/m 0 min 2 min 0,0 UV-I 33 W/m 18,0 km/h (3 Bft)
13.10.2013 09:42 7,5 C 6,1 C 97 % 1014,9 hPa 0,0 l/m 0 min 2 min 0,0 UV-I 35 W/m 12,9 km/h (3 Bft)
13.10.2013 09:44 7,5 C 6,1 C 97 % 1014,9 hPa 0,0 l/m 0 min 2 min 0,0 UV-I 37 W/m 10,3 km/h (2 Bft)
13.10.2013 09:46 7,5 C 6,7 C 97 % 1015,0 hPa 0,0 l/m 0 min 2 min 0,0 UV-I 40 W/m 18,0 km/h (3 Bft)
13.10.2013 09:48 7,6 C 6,7 C 97 % 1015,0 hPa 0,0 l/m 0 min 2 min 0,0 UV-I 40 W/m 15,4 km/h (3 Bft)
13.10.2013 09:50 7,6 C 6,7 C 97 % 1014,9 hPa 0,0 l/m 0 min 2 min 0,0 UV-I 40 W/m 12,9 km/h (3 Bft)
13.10.2013 09:52 7,6 C 6,7 C 97 % 1014,9 hPa 0,0 l/m 0 min 2 min 0,0 UV-I 40 W/m 12,9 km/h (3 Bft)
13.10.2013 09:54 7,6 C 6,7 C 97 % 1015,0 hPa 0,2 l/m 0 min 2 min 0,0 UV-I 42 W/m 12,9 km/h (3 Bft)
13.10.2013 09:56 7,6 C 6,7 C 97 % 1015,0 hPa 0,0 l/m 0 min 2 min 0,0 UV-I 44 W/m 18,0 km/h (3 Bft)
13.10.2013 09:58 7,6 C 6,7 C 97 % 1015,0 hPa 0,0 l/m 0 min 2 min 0,0 UV-I 47 W/m 10,3 km/h (2 Bft)
13.10.2013 10:00 7,6 C 6,7 C 97 % 1015,1 hPa 0,0 l/m 0 min 2 min 0,0 UV-I 51 W/m 10,3 km/h (2 Bft)
13.10.2013 10:02 7,6 C 6,7 C 97 % 1015,1 hPa 0,0 l/m 0 min 2 min 0,0 UV-I 51 W/m 10,3 km/h (2 Bft)
13.10.2013 10:06 7,6 C 6,7 C 97 % 1015,1 hPa 0,0 l/m 0 min 2 min 0,0 UV-I 46 W/m 15,4 km/h (3 Bft)
13.10.2013 10:08 7,6 C 6,7 C 97 % 1015,1 hPa 0,0 l/m 0 min 2 min 0,0 UV-I 42 W/m 20,6 km/h (4 Bft)
13.10.2013 10:10 7,6 C 6,7 C 97 % 1015,1 hPa 0,0 l/m 0 min 2 min 0,0 UV-I 42 W/m 5,1 km/h (1 Bft)
13.10.2013 10:12 7,6 C 6,7 C 97 % 1015,2 hPa 0,2 l/m 0 min 2 min 0,0 UV-I 42 W/m 7,7 km/h (2 Bft)
13.10.2013 10:14 7,6 C 6,7 C 97 % 1015,2 hPa 0,0 l/m 0 min 2 min 0,0 UV-I 46 W/m 18,0 km/h (3 Bft)
13.10.2013 10:16 7,6 C 6,7 C 97 % 1015,2 hPa 0,0 l/m 0 min 2 min 0,0 UV-I 47 W/m 18,0 km/h (3 Bft)
13.10.2013 10:18 7,6 C 6,7 C 97 % 1015,1 hPa 0,0 l/m 0 min 2 min 0,0 UV-I 49 W/m 20,6 km/h (4 Bft)
13.10.2013 10:20 7,6 C 6,7 C 97 % 1015,1 hPa 0,0 l/m 0 min 2 min 0,0 UV-I 51 W/m 12,9 km/h (3 Bft)
13.10.2013 10:22 7,7 C 6,7 C 97 % 1015,1 hPa 0,0 l/m 0 min 2 min 0,0 UV-I 51 W/m 12,9 km/h (3 Bft)
13.10.2013 10:24 7,7 C 6,7 C 97 % 1015,1 hPa 0,0 l/m 0 min 2 min 0,0 UV-I 51 W/m 23,2 km/h (4 Bft)
13.10.2013 10:26 7,7 C 6,7 C 97 % 1015,1 hPa 0,2 l/m 0 min 2 min 0,0 UV-I 60 W/m 12,9 km/h (3 Bft)
13.10.2013 10:28 7,7 C 6,7 C 97 % 1015,1 hPa 0,0 l/m 0 min 2 min 0,0 UV-I 63 W/m 12,9 km/h (3 Bft)
13.10.2013 10:30 7,7 C 6,7 C 97 % 1015,1 hPa 0,0 l/m 0 min 2 min 0,0 UV-I 65 W/m 18,0 km/h (3 Bft)
13.10.2013 10:32 7,7 C 6,7 C 97 % 1015,1 hPa 0,0 l/m 0 min 2 min 0,0 UV-I 70 W/m 20,6 km/h (4 Bft)
13.10.2013 10:34 7,7 C 6,7 C 97 % 1015,2 hPa 0,0 l/m 0 min 2 min 0,0 UV-I 72 W/m 12,9 km/h (3 Bft)
13.10.2013 10:36 7,7 C 6,7 C 97 % 1015,1 hPa 0,0 l/m 0 min 2 min 0,0 UV-I 74 W/m 18,0 km/h (3 Bft)
13.10.2013 10:38 7,7 C 6,7 C 97 % 1015,1 hPa 0,0 l/m 0 min 2 min 0,0 UV-I 76 W/m 20,6 km/h (4 Bft)
13.10.2013 10:40 7,7 C 6,7 C 97 % 1015,1 hPa 0,0 l/m 0 min 2 min 0,0 UV-I 74 W/m 12,9 km/h (3 Bft)
13.10.2013 10:42 7,8 C 6,7 C 97 % 1015,2 hPa 0,0 l/m 0 min 2 min 0,0 UV-I 74 W/m 12,9 km/h (3 Bft)
13.10.2013 10:44 7,8 C 6,7 C 97 % 1015,2 hPa 0,0 l/m 0 min 2 min 0,0 UV-I 72 W/m 12,9 km/h (3 Bft)
13.10.2013 10:46 7,8 C 6,7 C 97 % 1015,2 hPa 0,0 l/m 0 min 2 min 0,0 UV-I 70 W/m 10,3 km/h (2 Bft)
13.10.2013 10:48 7,8 C 6,7 C 97 % 1015,2 hPa 0,0 l/m 0 min 2 min 0,0 UV-I 72 W/m 20,6 km/h (4 Bft)
13.10.2013 10:50 7,9 C 6,7 C 97 % 1015,2 hPa 0,0 l/m 0 min 2 min 0,0 UV-I 70 W/m 10,3 km/h (2 Bft)
13.10.2013 10:52 7,9 C 6,7 C 97 % 1015,2 hPa 0,0 l/m 0 min 2 min 0,0 UV-I 69 W/m 18,0 km/h (3 Bft)
13.10.2013 10:54 7,9 C 6,7 C 97 % 1015,3 hPa 0,0 l/m 0 min 2 min 0,0 UV-I 70 W/m 7,7 km/h (2 Bft)
13.10.2013 10:56 7,9 C 6,7 C 97 % 1015,3 hPa 0,0 l/m 0 min 2 min 0,0 UV-I 76 W/m 18,0 km/h (3 Bft)
13.10.2013 10:58 7,9 C 6,7 C 97 % 1015,3 hPa 0,0 l/m 0 min 2 min 0,0 UV-I 79 W/m 20,6 km/h (4 Bft)
13.10.2013 11:00 7,9 C 6,7 C 97 % 1015,2 hPa 0,0 l/m 0 min 2 min 0,0 UV-I 81 W/m 20,6 km/h (4 Bft)
13.10.2013 11:02 7,9 C 6,7 C 97 % 1015,2 hPa 0,0 l/m 0 min 2 min 0,0 UV-I 86 W/m 15,4 km/h (3 Bft)
13.10.2013 11:06 8,0 C 7,2 C 97 % 1015,3 hPa 0,2 l/m 0 min 2 min 0,0 UV-I 88 W/m 25,7 km/h (4 Bft)
13.10.2013 11:08 8,0 C 7,2 C 97 % 1015,4 hPa 0,0 l/m 0 min 2 min 0,0 UV-I 84 W/m 12,9 km/h (3 Bft)
13.10.2013 11:10 8,0 C 7,2 C 97 % 1015,2 hPa 0,0 l/m 0 min 2 min 0,0 UV-I 81 W/m 20,6 km/h (4 Bft)
13.10.2013 11:12 8,0 C 7,2 C 97 % 1015,4 hPa 0,0 l/m 0 min 2 min 0,0 UV-I 79 W/m 25,7 km/h (4 Bft)
13.10.2013 11:14 8,0 C 7,2 C 97 % 1015,4 hPa 0,2 l/m 0 min 2 min 0,0 UV-I 76 W/m 18,0 km/h (3 Bft)
13.10.2013 11:16 8,0 C 6,7 C 97 % 1015,3 hPa 0,0 l/m 0 min 2 min 0,0 UV-I 72 W/m 20,6 km/h (4 Bft)
13.10.2013 11:18 8,1 C 6,7 C 97 % 1015,2 hPa 0,0 l/m 0 min 2 min 0,0 UV-I 70 W/m 15,4 km/h (3 Bft)
13.10.2013 11:20 8,0 C 6,7 C 97 % 1015,2 hPa 0,0 l/m 0 min 2 min 0,0 UV-I 72 W/m 23,2 km/h (4 Bft)
13.10.2013 11:22 8,1 C 7,2 C 97 % 1015,2 hPa 0,0 l/m 0 min 2 min 0,0 UV-I 77 W/m 18,0 km/h (3 Bft)
13.10.2013 11:24 8,1 C 7,2 C 97 % 1015,2 hPa 0,0 l/m 0 min 2 min 0,0 UV-I 91 W/m 15,4 km/h (3 Bft)
13.10.2013 11:26 8,1 C 7,2 C 97 % 1015,2 hPa 0,0 l/m 0 min 2 min 0,0 UV-I 118 W/m 18,0 km/h (3 Bft)
13.10.2013 11:28 8,1 C 7,2 C 97 % 1015,2 hPa 0,0 l/m 0 min 2 min 0,0 UV-I 132 W/m 15,4 km/h (3 Bft)
13.10.2013 11:30 8,1 C 7,2 C 97 % 1015,3 hPa 0,0 l/m 0 min 2 min 0,0 UV-I 141 W/m 25,7 km/h (4 Bft)
13.10.2013 11:32 8,2 C 7,2 C 97 % 1015,2 hPa 0,0 l/m 0 min 2 min 0,0 UV-I 144 W/m 20,6 km/h (4 Bft)
13.10.2013 11:34 8,2 C 7,2 C 97 % 1015,2 hPa 0,0 l/m 0 min 2 min 0,0 UV-I 155 W/m 18,0 km/h (3 Bft)
13.10.2013 11:36 8,3 C 7,8 C 97 % 1015,2 hPa 0,0 l/m 0 min 2 min 0,0 UV-I 158 W/m 20,6 km/h (4 Bft)
13.10.2013 11:38 8,4 C 7,8 C 97 % 1015,2 hPa 0,2 l/m 0 min 2 min 0,0 UV-I 155 W/m 12,9 km/h (3 Bft)
13.10.2013 11:40 8,4 C 7,8 C 97 % 1015,3 hPa 0,0 l/m 0 min 2 min 0,0 UV-I 153 W/m 15,4 km/h (3 Bft)
13.10.2013 11:42 8,5 C 7,8 C 97 % 1015,3 hPa 0,0 l/m 0 min 2 min 0,0 UV-I 148 W/m 15,4 km/h (3 Bft)
13.10.2013 11:44 8,6 C 7,8 C 96 % 1015,2 hPa 0,0 l/m 0 min 2 min 0,0 UV-I 151 W/m 12,9 km/h (3 Bft)
13.10.2013 11:46 8,6 C 7,8 C 97 % 1015,3 hPa 0,0 l/m 0 min 2 min 0,0 UV-I 153 W/m 30,9 km/h (5 Bft)
13.10.2013 11:48 8,6 C 7,8 C 97 % 1015,2 hPa 0,0 l/m 0 min 2 min 0,0 UV-I 146 W/m 18,0 km/h (3 Bft)
13.10.2013 11:50 8,7 C 7,8 C 97 % 1015,2 hPa 0,0 l/m 0 min 0 min 0,0 UV-I 142 W/m 23,2 km/h (4 Bft)
13.10.2013 11:52 8,7 C 7,8 C 96 % 1015,3 hPa 0,0 l/m 0 min 0 min 0,0 UV-I 130 W/m 15,4 km/h (3 Bft)
13.10.2013 11:54 8,7 C 7,8 C 96 % 1015,2 hPa 0,0 l/m 0 min 0 min 0,0 UV-I 125 W/m 12,9 km/h (3 Bft)
13.10.2013 11:56 8,7 C 7,8 C 96 % 1015,2 hPa 0,0 l/m 0 min 2 min 0,0 UV-I 127 W/m 20,6 km/h (4 Bft)
13.10.2013 11:58 8,8 C 7,8 C 96 % 1015,2 hPa 0,0 l/m 0 min 2 min 0,0 UV-I 127 W/m 20,6 km/h (4 Bft)
13.10.2013 12:00 8,8 C 7,8 C 96 % 1015,2 hPa 0,0 l/m 0 min 2 min 0,0 UV-I 113 W/m 28,3 km/h (4 Bft)
13.10.2013 12:02 8,8 C 7,8 C 96 % 1015,2 hPa 0,0 l/m 0 min 2 min 0,0 UV-I 121 W/m 30,9 km/h (5 Bft)
13.10.2013 12:06 8,8 C 7,8 C 96 % 1015,1 hPa 0,0 l/m 0 min 2 min 0,0 UV-I 116 W/m 23,2 km/h (4 Bft)
13.10.2013 12:08 8,8 C 7,8 C 95 % 1015,1 hPa 0,0 l/m 0 min 0 min 0,0 UV-I 118 W/m 12,9 km/h (3 Bft)
13.10.2013 12:10 8,8 C 7,8 C 95 % 1015,1 hPa 0,0 l/m 0 min 0 min 0,0 UV-I 125 W/m 25,7 km/h (4 Bft)
13.10.2013 12:12 8,8 C 7,2 C 95 % 1015,1 hPa 0,0 l/m 0 min 0 min 0,0 UV-I 137 W/m 25,7 km/h (4 Bft)
13.10.2013 12:14 8,9 C 7,8 C 95 % 1015,0 hPa 0,0 l/m 0 min 2 min 0,0 UV-I 142 W/m 28,3 km/h (4 Bft)
13.10.2013 12:16 8,9 C 7,8 C 95 % 1015,0 hPa 0,0 l/m 0 min 0 min 0,0 UV-I 146 W/m 15,4 km/h (3 Bft)
13.10.2013 12:18 9,0 C 7,8 C 94 % 1015,0 hPa 0,0 l/m 0 min 0 min 0,0 UV-I 146 W/m 18,0 km/h (3 Bft)
13.10.2013 12:20 9,1 C 7,8 C 94 % 1015,0 hPa 0,0 l/m 0 min 0 min 0,0 UV-I 151 W/m 25,7 km/h (4 Bft)
13.10.2013 12:22 9,1 C 7,8 C 94 % 1015,0 hPa 0,0 l/m 0 min 0 min 0,0 UV-I 158 W/m 18,0 km/h (3 Bft)
13.10.2013 12:24 9,1 C 7,8 C 94 % 1015,1 hPa 0,0 l/m 0 min 0 min 0,0 UV-I 167 W/m 25,7 km/h (4 Bft)
13.10.2013 12:26 9,2 C 7,8 C 94 % 1015,1 hPa 0,0 l/m 0 min 0 min 0,0 UV-I 171 W/m 23,2 km/h (4 Bft)
13.10.2013 12:28 9,2 C 7,8 C 93 % 1015,0 hPa 0,0 l/m 0 min 0 min 0,0 UV-I 174 W/m 25,7 km/h (4 Bft)
13.10.2013 12:30 9,2 C 7,8 C 93 % 1015,1 hPa 0,0 l/m 0 min 0 min 0,0 UV-I 178 W/m 28,3 km/h (4 Bft)
13.10.2013 12:32 9,2 C 7,8 C 93 % 1015,0 hPa 0,0 l/m 0 min 0 min 0,0 UV-I 179 W/m 20,6 km/h (4 Bft)
13.10.2013 12:34 9,3 C 7,8 C 93 % 1015,0 hPa 0,0 l/m 0 min 0 min 0,0 UV-I 185 W/m 18,0 km/h (3 Bft)
13.10.2013 12:36 9,3 C 7,8 C 92 % 1015,0 hPa 0,0 l/m 0 min 0 min 0,0 UV-I 197 W/m 23,2 km/h (4 Bft)
13.10.2013 12:38 9,4 C 7,8 C 92 % 1015,0 hPa 0,0 l/m 0 min 0 min 0,0 UV-I 206 W/m 25,7 km/h (4 Bft)
13.10.2013 12:40 9,4 C 7,8 C 92 % 1015,1 hPa 0,0 l/m 0 min 0 min 0,0 UV-I 216 W/m 33,5 km/h (5 Bft)
13.10.2013 12:42 9,4 C 7,8 C 91 % 1015,1 hPa 0,0 l/m 0 min 0 min 0,0 UV-I 234 W/m 36,0 km/h (5 Bft)
13.10.2013 12:44 9,4 C 7,8 C 90 % 1015,1 hPa 0,0 l/m 0 min 0 min 0,0 UV-I 237 W/m 28,3 km/h (4 Bft)
13.10.2013 12:46 9,5 C 8,3 C 90 % 1015,1 hPa 0,0 l/m 0 min 0 min 0,0 UV-I 227 W/m 23,2 km/h (4 Bft)
13.10.2013 12:48 9,6 C 8,3 C 90 % 1015,2 hPa 0,0 l/m 0 min 0 min 0,0 UV-I 176 W/m 18,0 km/h (3 Bft)
13.10.2013 12:50 9,6 C 7,8 C 90 % 1015,2 hPa 0,0 l/m 0 min 0 min 0,0 UV-I 163 W/m 28,3 km/h (4 Bft)
13.10.2013 12:52 9,6 C 7,8 C 89 % 1015,2 hPa 0,0 l/m 0 min 0 min 0,0 UV-I 153 W/m 20,6 km/h (4 Bft)
13.10.2013 12:54 9,6 C 7,8 C 89 % 1015,1 hPa 0,0 l/m 0 min 0 min 0,0 UV-I 172 W/m 33,5 km/h (5 Bft)
13.10.2013 12:56 9,6 C 7,8 C 89 % 1015,1 hPa 0,0 l/m 0 min 0 min 0,0 UV-I 186 W/m 46,3 km/h (6 Bft)
13.10.2013 12:58 9,6 C 7,8 C 88 % 1015,2 hPa 0,0 l/m 0 min 0 min 0,0 UV-I 206 W/m 43,8 km/h (6 Bft)
13.10.2013 13:00 9,6 C 8,3 C 88 % 1015,2 hPa 0,0 l/m 0 min 0 min 0,0 UV-I 214 W/m 48,9 km/h (6 Bft)
13.10.2013 13:02 9,6 C 8,3 C 87 % 1015,1 hPa 0,0 l/m 0 min 0 min 0,5 UV-I 236 W/m 23,2 km/h (4 Bft)
13.10.2013 13:06 9,7 C 8,3 C 87 % 1015,2 hPa 0,0 l/m 0 min 0 min 0,0 UV-I 199 W/m 38,6 km/h (5 Bft)
13.10.2013 13:08 9,7 C 8,3 C 87 % 1015,1 hPa 0,0 l/m 0 min 0 min 0,0 UV-I 206 W/m 18,0 km/h (3 Bft)
13.10.2013 13:10 9,8 C 8,9 C 87 % 1015,2 hPa 0,0 l/m 0 min 0 min 0,5 UV-I 225 W/m 33,5 km/h (5 Bft)
13.10.2013 13:12 9,8 C 8,9 C 87 % 1014,9 hPa 0,0 l/m 0 min 0 min 0,0 UV-I 195 W/m 23,2 km/h (4 Bft)
13.10.2013 13:14 9,8 C 8,9 C 86 % 1014,9 hPa 0,0 l/m 0 min 0 min 0,0 UV-I 144 W/m 30,9 km/h (5 Bft)
13.10.2013 13:16 9,8 C 8,3 C 86 % 1015,1 hPa 0,0 l/m 0 min 0 min 0,0 UV-I 139 W/m 28,3 km/h (4 Bft)
13.10.2013 13:18 9,8 C 8,3 C 86 % 1015,1 hPa 0,0 l/m 0 min 0 min 0,0 UV-I 139 W/m 25,7 km/h (4 Bft)
13.10.2013 13:20 9,8 C 8,3 C 86 % 1015,1 hPa 0,0 l/m 0 min 0 min 0,0 UV-I 181 W/m 23,2 km/h (4 Bft)
13.10.2013 13:22 9,8 C 8,9 C 86 % 1015,0 hPa 0,0 l/m 0 min 0 min 0,0 UV-I 202 W/m 20,6 km/h (4 Bft)
13.10.2013 13:24 9,8 C 8,9 C 86 % 1015,0 hPa 0,0 l/m 0 min 0 min 0,5 UV-I 225 W/m 28,3 km/h (4 Bft)
13.10.2013 13:26 9,9 C 8,9 C 86 % 1015,0 hPa 0,0 l/m 0 min 0 min 0,7 UV-I 232 W/m 25,7 km/h (4 Bft)
13.10.2013 13:28 10,0 C 9,4 C 86 % 1014,9 hPa 0,0 l/m 2 min 0 min 1,1 UV-I 315 W/m 23,2 km/h (4 Bft)
13.10.2013 13:30 10,2 C 9,4 C 86 % 1015,0 hPa 0,0 l/m 0 min 0 min 0,7 UV-I 271 W/m 20,6 km/h (4 Bft)
13.10.2013 13:32 10,3 C 9,4 C 86 % 1015,0 hPa 0,0 l/m 2 min 0 min 0,8 UV-I 327 W/m 41,2 km/h (6 Bft)
13.10.2013 13:34 10,3 C 9,4 C 85 % 1015,1 hPa 0,0 l/m 2 min 0 min 1,1 UV-I 459 W/m 36,0 km/h (5 Bft)
13.10.2013 13:36 10,4 C 9,4 C 84 % 1015,0 hPa 0,0 l/m 2 min 0 min 1,1 UV-I 383 W/m 33,5 km/h (5 Bft)
13.10.2013 13:38 10,5 C 9,4 C 84 % 1015,0 hPa 0,0 l/m 2 min 0 min 0,8 UV-I 304 W/m 38,6 km/h (5 Bft)
13.10.2013 13:40 10,6 C 9,4 C 84 % 1014,9 hPa 0,0 l/m 2 min 0 min 0,9 UV-I 304 W/m 30,9 km/h (5 Bft)
13.10.2013 13:42 10,6 C 9,4 C 84 % 1014,8 hPa 0,0 l/m 2 min 0 min 1,0 UV-I 304 W/m 36,0 km/h (5 Bft)
13.10.2013 13:44 10,6 C 9,4 C 83 % 1014,8 hPa 0,0 l/m 2 min 0 min 1,0 UV-I 443 W/m 30,9 km/h (5 Bft)
13.10.2013 13:46 10,6 C 9,4 C 83 % 1014,8 hPa 0,0 l/m 2 min 0 min 0,9 UV-I 364 W/m 36,0 km/h (5 Bft)
13.10.2013 13:48 10,6 C 9,4 C 83 % 1014,8 hPa 0,0 l/m 0 min 0 min 0,8 UV-I 264 W/m 46,3 km/h (6 Bft)
13.10.2013 13:50 10,4 C 9,4 C 82 % 1014,8 hPa 0,0 l/m 2 min 0 min 0,8 UV-I 323 W/m 30,9 km/h (5 Bft)
13.10.2013 13:52 10,4 C 9,4 C 82 % 1014,8 hPa 0,0 l/m 0 min 0 min 0,6 UV-I 230 W/m 38,6 km/h (5 Bft)
13.10.2013 13:54 10,3 C 8,9 C 82 % 1014,7 hPa 0,0 l/m 0 min 0 min 0,6 UV-I 218 W/m 30,9 km/h (5 Bft)
13.10.2013 13:56 10,3 C 8,9 C 82 % 1014,8 hPa 0,0 l/m 0 min 0 min 0,5 UV-I 197 W/m 28,3 km/h (4 Bft)
13.10.2013 13:58 10,2 C 8,9 C 82 % 1014,7 hPa 0,0 l/m 0 min 0 min 0,5 UV-I 227 W/m 23,2 km/h (4 Bft)
13.10.2013 14:00 10,2 C 8,9 C 83 % 1014,7 hPa 0,0 l/m 0 min 0 min 0,5 UV-I 216 W/m 36,0 km/h (5 Bft)
13.10.2013 14:02 10,1 C 8,9 C 83 % 1014,7 hPa 0,0 l/m 0 min 0 min 0,5 UV-I 214 W/m 30,9 km/h (5 Bft)
13.10.2013 14:06 10,1 C 9,4 C 83 % 1014,6 hPa 0,0 l/m 0 min 0 min 0,0 UV-I 213 W/m 38,6 km/h (5 Bft)
13.10.2013 14:08 10,1 C 9,4 C 83 % 1014,6 hPa 0,0 l/m 0 min 0 min 0,0 UV-I 209 W/m 23,2 km/h (4 Bft)
13.10.2013 14:10 10,1 C 9,4 C 83 % 1014,7 hPa 0,0 l/m 0 min 0 min 0,0 UV-I 204 W/m 41,2 km/h (6 Bft)
13.10.2013 14:12 10,1 C 9,4 C 83 % 1014,6 hPa 0,0 l/m 0 min 0 min 0,0 UV-I 197 W/m 28,3 km/h (4 Bft)
13.10.2013 14:14 10,1 C 9,4 C 83 % 1014,7 hPa 0,0 l/m 0 min 0 min 0,0 UV-I 193 W/m 36,0 km/h (5 Bft)
13.10.2013 14:16 10,1 C 9,4 C 83 % 1014,4 hPa 0,0 l/m 0 min 0 min 0,0 UV-I 190 W/m 20,6 km/h (4 Bft)
13.10.2013 14:18 10,1 C 9,4 C 83 % 1014,4 hPa 0,0 l/m 0 min 0 min 0,0 UV-I 190 W/m 48,9 km/h (6 Bft)
13.10.2013 14:20 10,1 C 9,4 C 83 % 1014,4 hPa 0,0 l/m 0 min 0 min 0,0 UV-I 188 W/m 36,0 km/h (5 Bft)
13.10.2013 14:22 10,1 C 9,4 C 83 % 1014,3 hPa 0,0 l/m 0 min 0 min 0,0 UV-I 188 W/m 30,9 km/h (5 Bft)
13.10.2013 14:24 10,1 C 9,4 C 83 % 1014,3 hPa 0,0 l/m 0 min 0 min 0,0 UV-I 190 W/m 23,2 km/h (4 Bft)
13.10.2013 14:26 10,1 C 9,4 C 83 % 1014,3 hPa 0,0 l/m 0 min 0 min 0,0 UV-I 192 W/m 25,7 km/h (4 Bft)
13.10.2013 14:28 10,2 C 9,4 C 83 % 1014,3 hPa 0,0 l/m 0 min 0 min 0,0 UV-I 195 W/m 30,9 km/h (5 Bft)
13.10.2013 14:30 10,2 C 9,4 C 83 % 1014,3 hPa 0,0 l/m 0 min 0 min 0,0 UV-I 195 W/m 23,2 km/h (4 Bft)
13.10.2013 14:32 10,2 C 9,4 C 83 % 1014,3 hPa 0,0 l/m 0 min 0 min 0,0 UV-I 193 W/m 28,3 km/h (4 Bft)
13.10.2013 14:34 10,2 C 9,4 C 83 % 1014,3 hPa 0,0 l/m 0 min 0 min 0,0 UV-I 192 W/m 25,7 km/h (4 Bft)
13.10.2013 14:36 10,2 C 9,4 C 83 % 1014,2 hPa 0,0 l/m 0 min 0 min 0,0 UV-I 190 W/m 18,0 km/h (3 Bft)
13.10.2013 14:38 10,2 C 9,4 C 83 % 1014,2 hPa 0,0 l/m 0 min 0 min 0,0 UV-I 181 W/m 30,9 km/h (5 Bft)
13.10.2013 14:40 10,3 C 9,4 C 83 % 1014,2 hPa 0,0 l/m 0 min 0 min 0,0 UV-I 176 W/m 38,6 km/h (5 Bft)
13.10.2013 14:42 10,2 C 9,4 C 82 % 1014,2 hPa 0,0 l/m 0 min 0 min 0,0 UV-I 169 W/m 36,0 km/h (5 Bft)
13.10.2013 14:44 10,2 C 9,4 C 82 % 1014,3 hPa 0,0 l/m 0 min 0 min 0,0 UV-I 163 W/m 28,3 km/h (4 Bft)
13.10.2013 14:46 10,2 C 9,4 C 82 % 1014,2 hPa 0,0 l/m 0 min 0 min 0,0 UV-I 162 W/m 28,3 km/h (4 Bft)
13.10.2013 14:48 10,2 C 9,4 C 82 % 1014,2 hPa 0,0 l/m 0 min 0 min 0,0 UV-I 162 W/m 36,0 km/h (5 Bft)
13.10.2013 14:50 10,2 C 9,4 C 82 % 1014,2 hPa 0,0 l/m 0 min 0 min 0,0 UV-I 162 W/m 33,5 km/h (5 Bft)
13.10.2013 14:52 10,2 C 9,4 C 82 % 1014,2 hPa 0,0 l/m 0 min 0 min 0,0 UV-I 160 W/m 28,3 km/h (4 Bft)
13.10.2013 14:54 10,2 C 9,4 C 82 % 1014,2 hPa 0,0 l/m 0 min 0 min 0,0 UV-I 156 W/m 23,2 km/h (4 Bft)
13.10.2013 14:56 10,2 C 9,4 C 82 % 1014,3 hPa 0,0 l/m 0 min 0 min 0,0 UV-I 151 W/m 30,9 km/h (5 Bft)
13.10.2013 14:58 10,2 C 9,4 C 82 % 1014,2 hPa 0,0 l/m 0 min 0 min 0,0 UV-I 148 W/m 18,0 km/h (3 Bft)
13.10.2013 15:00 10,2 C 9,4 C 82 % 1014,2 hPa 0,0 l/m 0 min 0 min 0,0 UV-I 144 W/m 36,0 km/h (5 Bft)
13.10.2013 15:02 10,2 C 9,4 C 81 % 1014,2 hPa 0,0 l/m 0 min 0 min 0,0 UV-I 144 W/m 33,5 km/h (5 Bft)
13.10.2013 15:06 10,2 C 9,4 C 81 % 1014,3 hPa 0,0 l/m 0 min 0 min 0,0 UV-I 153 W/m 30,9 km/h (5 Bft)
13.10.2013 15:08 10,2 C 9,4 C 81 % 1014,2 hPa 0,0 l/m 0 min 0 min 0,0 UV-I 156 W/m 36,0 km/h (5 Bft)
13.10.2013 15:10 10,2 C 9,4 C 81 % 1014,1 hPa 0,0 l/m 0 min 0 min 0,0 UV-I 153 W/m 25,7 km/h (4 Bft)
13.10.2013 15:12 10,2 C 9,4 C 81 % 1014,1 hPa 0,0 l/m 0 min 0 min 0,0 UV-I 148 W/m 25,7 km/h (4 Bft)
13.10.2013 15:14 10,2 C 9,4 C 81 % 1014,1 hPa 0,0 l/m 0 min 0 min 0,0 UV-I 141 W/m 18,0 km/h (3 Bft)
13.10.2013 15:16 10,2 C 9,4 C 81 % 1014,1 hPa 0,0 l/m 0 min 0 min 0,0 UV-I 139 W/m 23,2 km/h (4 Bft)
13.10.2013 15:18 10,2 C 9,4 C 81 % 1014,1 hPa 0,0 l/m 0 min 0 min 0,0 UV-I 137 W/m 18,0 km/h (3 Bft)
13.10.2013 15:20 10,2 C 9,4 C 81 % 1014,2 hPa 0,0 l/m 0 min 0 min 0,0 UV-I 135 W/m 18,0 km/h (3 Bft)
13.10.2013 15:22 10,2 C 9,4 C 81 % 1014,2 hPa 0,0 l/m 0 min 0 min 0,0 UV-I 135 W/m 20,6 km/h (4 Bft)
13.10.2013 15:24 10,2 C 9,4 C 81 % 1014,3 hPa 0,0 l/m 0 min 0 min 0,0 UV-I 137 W/m 23,2 km/h (4 Bft)
13.10.2013 15:26 10,2 C 9,4 C 81 % 1014,3 hPa 0,0 l/m 0 min 0 min 0,0 UV-I 139 W/m 25,7 km/h (4 Bft)
13.10.2013 15:28 10,2 C 9,4 C 81 % 1014,1 hPa 0,0 l/m 0 min 0 min 0,0 UV-I 144 W/m 23,2 km/h (4 Bft)
13.10.2013 15:30 10,2 C 9,4 C 81 % 1014,2 hPa 0,0 l/m 0 min 0 min 0,0 UV-I 146 W/m 20,6 km/h (4 Bft)
13.10.2013 15:32 10,2 C 9,4 C 81 % 1014,2 hPa 0,0 l/m 0 min 0 min 0,0 UV-I 144 W/m 23,2 km/h (4 Bft)
13.10.2013 15:34 10,2 C 9,4 C 81 % 1014,2 hPa 0,0 l/m 0 min 0 min 0,0 UV-I 141 W/m 28,3 km/h (4 Bft)
13.10.2013 15:36 10,2 C 9,4 C 81 % 1014,2 hPa 0,0 l/m 0 min 0 min 0,0 UV-I 135 W/m 25,7 km/h (4 Bft)
13.10.2013 15:38 10,2 C 9,4 C 82 % 1014,3 hPa 0,0 l/m 0 min 0 min 0,0 UV-I 134 W/m 20,6 km/h (4 Bft)
13.10.2013 15:40 10,2 C 9,4 C 81 % 1014,4 hPa 0,0 l/m 0 min 0 min 0,0 UV-I 132 W/m 30,9 km/h (5 Bft)
13.10.2013 15:42 10,2 C 9,4 C 81 % 1014,3 hPa 0,0 l/m 0 min 0 min 0,0 UV-I 132 W/m 23,2 km/h (4 Bft)
13.10.2013 15:44 10,2 C 9,4 C 82 % 1014,3 hPa 0,0 l/m 0 min 0 min 0,0 UV-I 128 W/m 28,3 km/h (4 Bft)
13.10.2013 15:46 10,2 C 9,4 C 82 % 1014,3 hPa 0,0 l/m 0 min 0 min 0,0 UV-I 127 W/m 25,7 km/h (4 Bft)
13.10.2013 15:48 10,1 C 9,4 C 82 % 1014,3 hPa 0,0 l/m 0 min 0 min 0,0 UV-I 120 W/m 30,9 km/h (5 Bft)
13.10.2013 15:50 10,1 C 9,4 C 82 % 1014,4 hPa 0,0 l/m 0 min 0 min 0,0 UV-I 116 W/m 30,9 km/h (5 Bft)
13.10.2013 15:52 10,1 C 9,4 C 81 % 1014,4 hPa 0,0 l/m 0 min 0 min 0,0 UV-I 113 W/m 25,7 km/h (4 Bft)
13.10.2013 15:54 10,1 C 8,9 C 81 % 1014,4 hPa 0,0 l/m 0 min 0 min 0,0 UV-I 109 W/m 30,9 km/h (5 Bft)
13.10.2013 15:56 10,1 C 8,9 C 81 % 1014,4 hPa 0,0 l/m 0 min 0 min 0,0 UV-I 105 W/m 41,2 km/h (6 Bft)
13.10.2013 15:58 10,0 C 8,9 C 80 % 1014,3 hPa 0,0 l/m 0 min 0 min 0,0 UV-I 105 W/m 28,3 km/h (4 Bft)
13.10.2013 16:00 10,0 C 8,9 C 81 % 1014,4 hPa 0,0 l/m 0 min 0 min 0,0 UV-I 107 W/m 33,5 km/h (5 Bft)
13.10.2013 16:02 10,0 C 8,9 C 80 % 1014,4 hPa 0,0 l/m 0 min 0 min 0,0 UV-I 107 W/m 43,8 km/h (6 Bft)
13.10.2013 16:06 10,0 C 8,9 C 80 % 1014,4 hPa 0,0 l/m 0 min 0 min 0,0 UV-I 105 W/m 33,5 km/h (5 Bft)
13.10.2013 16:08 10,0 C 8,9 C 80 % 1014,4 hPa 0,0 l/m 0 min 0 min 0,0 UV-I 105 W/m 38,6 km/h (5 Bft)
13.10.2013 16:10 10,0 C 8,9 C 80 % 1014,4 hPa 0,0 l/m 0 min 0 min 0,0 UV-I 105 W/m 25,7 km/h (4 Bft)
13.10.2013 16:12 10,0 C 8,9 C 80 % 1014,5 hPa 0,0 l/m 0 min 0 min 0,0 UV-I 104 W/m 28,3 km/h (4 Bft)
13.10.2013 16:14 10,0 C 8,9 C 80 % 1014,4 hPa 0,0 l/m 0 min 0 min 0,0 UV-I 100 W/m 28,3 km/h (4 Bft)
13.10.2013 16:16 10,0 C 8,9 C 80 % 1014,5 hPa 0,0 l/m 0 min 0 min 0,0 UV-I 97 W/m 41,2 km/h (6 Bft)
13.10.2013 16:18 10,0 C 8,9 C 80 % 1014,5 hPa 0,0 l/m 0 min 0 min 0,0 UV-I 95 W/m 28,3 km/h (4 Bft)
13.10.2013 16:20 10,0 C 8,9 C 80 % 1014,4 hPa 0,0 l/m 0 min 0 min 0,0 UV-I 98 W/m 20,6 km/h (4 Bft)
13.10.2013 16:22 10,0 C 8,9 C 81 % 1014,5 hPa 0,0 l/m 0 min 0 min 0,0 UV-I 102 W/m 23,2 km/h (4 Bft)
13.10.2013 16:24 10,0 C 8,9 C 81 % 1014,4 hPa 0,0 l/m 0 min 0 min 0,0 UV-I 109 W/m 25,7 km/h (4 Bft)
13.10.2013 16:26 9,9 C 8,9 C 80 % 1014,5 hPa 0,0 l/m 0 min 0 min 0,0 UV-I 111 W/m 28,3 km/h (4 Bft)
13.10.2013 16:28 10,0 C 8,9 C 80 % 1014,5 hPa 0,0 l/m 0 min 0 min 0,0 UV-I 113 W/m 30,9 km/h (5 Bft)
13.10.2013 16:30 10,0 C 8,9 C 80 % 1014,4 hPa 0,0 l/m 0 min 0 min 0,0 UV-I 118 W/m 28,3 km/h (4 Bft)
13.10.2013 16:32 10,0 C 8,9 C 80 % 1014,4 hPa 0,0 l/m 0 min 0 min 0,0 UV-I 116 W/m 23,2 km/h (4 Bft)
13.10.2013 16:34 10,0 C 8,9 C 80 % 1014,5 hPa 0,0 l/m 0 min 0 min 0,0 UV-I 113 W/m 28,3 km/h (4 Bft)
13.10.2013 16:36 10,0 C 8,9 C 80 % 1014,5 hPa 0,0 l/m 0 min 0 min 0,0 UV-I 105 W/m 41,2 km/h (6 Bft)
13.10.2013 16:38 10,0 C 8,9 C 80 % 1014,4 hPa 0,0 l/m 0 min 0 min 0,0 UV-I 100 W/m 20,6 km/h (4 Bft)
13.10.2013 16:40 10,0 C 8,9 C 80 % 1014,4 hPa 0,0 l/m 0 min 0 min 0,0 UV-I 95 W/m 23,2 km/h (4 Bft)
13.10.2013 16:42 10,0 C 8,9 C 80 % 1014,4 hPa 0,0 l/m 0 min 0 min 0,0 UV-I 88 W/m 23,2 km/h (4 Bft)
13.10.2013 16:44 10,0 C 8,9 C 80 % 1014,4 hPa 0,0 l/m 0 min 0 min 0,0 UV-I 83 W/m 18,0 km/h (3 Bft)
13.10.2013 16:46 10,0 C 8,9 C 80 % 1014,4 hPa 0,0 l/m 0 min 0 min 0,0 UV-I 77 W/m 15,4 km/h (3 Bft)
13.10.2013 16:48 10,0 C 8,9 C 80 % 1014,4 hPa 0,0 l/m 0 min 0 min 0,0 UV-I 72 W/m 15,4 km/h (3 Bft)
13.10.2013 16:50 9,9 C 8,9 C 80 % 1014,4 hPa 0,0 l/m 0 min 0 min 0,0 UV-I 69 W/m 33,5 km/h (5 Bft)
13.10.2013 16:52 9,9 C 8,9 C 80 % 1014,4 hPa 0,0 l/m 0 min 0 min 0,0 UV-I 67 W/m 30,9 km/h (5 Bft)
13.10.2013 16:54 9,9 C 8,9 C 80 % 1014,4 hPa 0,0 l/m 0 min 0 min 0,0 UV-I 62 W/m 23,2 km/h (4 Bft)
13.10.2013 16:56 9,9 C 8,9 C 80 % 1014,5 hPa 0,0 l/m 0 min 0 min 0,0 UV-I 56 W/m 28,3 km/h (4 Bft)
13.10.2013 16:58 9,8 C 8,9 C 80 % 1014,5 hPa 0,0 l/m 0 min 0 min 0,0 UV-I 49 W/m 28,3 km/h (4 Bft)
13.10.2013 17:00 9,8 C 8,9 C 80 % 1014,4 hPa 0,0 l/m 0 min 0 min 0,0 UV-I 46 W/m 33,5 km/h (5 Bft)
13.10.2013 17:02 9,8 C 8,3 C 80 % 1014,4 hPa 0,0 l/m 0 min 0 min 0,0 UV-I 46 W/m 33,5 km/h (5 Bft)
13.10.2013 17:06 9,7 C 8,3 C 80 % 1014,4 hPa 0,0 l/m 0 min 0 min 0,0 UV-I 42 W/m 20,6 km/h (4 Bft)
13.10.2013 17:08 9,7 C 8,3 C 80 % 1014,5 hPa 0,0 l/m 0 min 0 min 0,0 UV-I 40 W/m 28,3 km/h (4 Bft)
13.10.2013 17:10 9,7 C 8,3 C 80 % 1014,4 hPa 0,0 l/m 0 min 0 min 0,0 UV-I 42 W/m 30,9 km/h (5 Bft)
13.10.2013 17:12 9,6 C 8,3 C 80 % 1014,4 hPa 0,0 l/m 0 min 0 min 0,0 UV-I 44 W/m 36,0 km/h (5 Bft)
13.10.2013 17:14 9,6 C 8,3 C 80 % 1014,4 hPa 0,0 l/m 0 min 0 min 0,0 UV-I 44 W/m 28,3 km/h (4 Bft)
13.10.2013 17:16 9,6 C 8,3 C 80 % 1014,4 hPa 0,0 l/m 0 min 0 min 0,0 UV-I 40 W/m 25,7 km/h (4 Bft)
13.10.2013 17:18 9,6 C 8,3 C 80 % 1014,4 hPa 0,0 l/m 0 min 0 min 0,0 UV-I 37 W/m 25,7 km/h (4 Bft)
13.10.2013 17:20 9,6 C 8,3 C 80 % 1014,5 hPa 0,0 l/m 0 min 0 min 0,0 UV-I 35 W/m 25,7 km/h (4 Bft)
13.10.2013 17:22 9,5 C 8,3 C 80 % 1014,5 hPa 0,0 l/m 0 min 0 min 0,0 UV-I 32 W/m 20,6 km/h (4 Bft)
13.10.2013 17:24 9,5 C 8,3 C 80 % 1014,6 hPa 0,0 l/m 0 min 0 min 0,0 UV-I 32 W/m 25,7 km/h (4 Bft)
13.10.2013 17:26 9,5 C 8,3 C 80 % 1014,5 hPa 0,0 l/m 0 min 0 min 0,0 UV-I 30 W/m 28,3 km/h (4 Bft)
13.10.2013 17:28 9,4 C 8,3 C 80 % 1014,5 hPa 0,0 l/m 0 min 0 min 0,0 UV-I 32 W/m 30,9 km/h (5 Bft)
13.10.2013 17:30 9,4 C 8,3 C 80 % 1014,5 hPa 0,0 l/m 0 min 0 min 0,0 UV-I 30 W/m 23,2 km/h (4 Bft)
13.10.2013 17:32 9,4 C 8,3 C 80 % 1014,6 hPa 0,0 l/m 0 min 0 min 0,0 UV-I 30 W/m 33,5 km/h (5 Bft)
13.10.2013 17:34 9,4 C 8,3 C 80 % 1014,6 hPa 0,0 l/m 0 min 0 min 0,0 UV-I 28 W/m 30,9 km/h (5 Bft)
13.10.2013 17:36 9,4 C 8,3 C 80 % 1014,5 hPa 0,0 l/m 0 min 0 min 0,0 UV-I 28 W/m 20,6 km/h (4 Bft)
13.10.2013 17:38 9,4 C 8,3 C 80 % 1014,4 hPa 0,0 l/m 0 min 0 min 0,0 UV-I 26 W/m 23,2 km/h (4 Bft)
13.10.2013 17:40 9,4 C 8,3 C 80 % 1014,5 hPa 0,0 l/m 0 min 0 min 0,0 UV-I 25 W/m 25,7 km/h (4 Bft)
13.10.2013 17:42 9,4 C 8,3 C 80 % 1014,5 hPa 0,0 l/m 0 min 0 min 0,0 UV-I 25 W/m 18,0 km/h (3 Bft)
13.10.2013 17:44 9,4 C 8,3 C 80 % 1014,5 hPa 0,0 l/m 0 min 0 min 0,0 UV-I 23 W/m 18,0 km/h (3 Bft)
13.10.2013 17:46 9,4 C 8,3 C 80 % 1014,6 hPa 0,0 l/m 0 min 0 min 0,0 UV-I 21 W/m 28,3 km/h (4 Bft)
13.10.2013 17:48 9,4 C 8,3 C 80 % 1014,6 hPa 0,0 l/m 0 min 0 min 0,0 UV-I 21 W/m 30,9 km/h (5 Bft)
13.10.2013 17:50 9,4 C 8,3 C 80 % 1014,6 hPa 0,0 l/m 0 min 0 min 0,0 UV-I 19 W/m 23,2 km/h (4 Bft)
13.10.2013 17:52 9,4 C 7,8 C 80 % 1014,5 hPa 0,0 l/m 0 min 0 min 0,0 UV-I 16 W/m 36,0 km/h (5 Bft)
13.10.2013 17:54 9,4 C 7,8 C 80 % 1014,5 hPa 0,0 l/m 0 min 0 min 0,0 UV-I 16 W/m 25,7 km/h (4 Bft)
13.10.2013 17:56 9,4 C 7,8 C 80 % 1014,5 hPa 0,0 l/m 0 min 0 min 0,0 UV-I 14 W/m 20,6 km/h (4 Bft)
13.10.2013 17:58 9,4 C 7,8 C 80 % 1014,3 hPa 0,0 l/m 0 min 0 min 0,0 UV-I 12 W/m 20,6 km/h (4 Bft)
13.10.2013 18:00 9,3 C 7,8 C 80 % 1014,2 hPa 0,0 l/m 0 min 2 min 0,0 UV-I 12 W/m 28,3 km/h (4 Bft)
13.10.2013 18:02 9,4 C 7,8 C 80 % 1014,3 hPa 0,0 l/m 0 min 0 min 0,0 UV-I 11 W/m 28,3 km/h (4 Bft)
13.10.2013 18:06 9,4 C 7,8 C 80 % 1014,3 hPa 0,0 l/m 0 min 0 min 0,0 UV-I 11 W/m 23,2 km/h (4 Bft)
13.10.2013 18:08 9,3 C 7,8 C 80 % 1014,3 hPa 0,0 l/m 0 min 0 min 0,0 UV-I 11 W/m 25,7 km/h (4 Bft)
13.10.2013 18:10 9,3 C 7,8 C 80 % 1014,2 hPa 0,0 l/m 0 min 0 min 0,0 UV-I 11 W/m 20,6 km/h (4 Bft)
13.10.2013 18:12 9,3 C 7,8 C 80 % 1014,2 hPa 0,0 l/m 0 min 0 min 0,0 UV-I 11 W/m 15,4 km/h (3 Bft)
13.10.2013 18:14 9,3 C 7,8 C 80 % 1014,2 hPa 0,0 l/m 0 min 0 min 0,0 UV-I 11 W/m 20,6 km/h (4 Bft)
13.10.2013 18:16 9,3 C 7,8 C 80 % 1014,0 hPa 0,0 l/m 0 min 0 min 0,0 UV-I 11 W/m 25,7 km/h (4 Bft)
13.10.2013 18:18 9,3 C 7,8 C 81 % 1014,0 hPa 0,0 l/m 0 min 0 min 0,0 UV-I 11 W/m 20,6 km/h (4 Bft)
13.10.2013 18:20 9,3 C 7,8 C 81 % 1014,1 hPa 0,0 l/m 0 min 0 min 0,0 UV-I 12 W/m 28,3 km/h (4 Bft)
13.10.2013 18:22 9,3 C 7,8 C 81 % 1014,1 hPa 0,0 l/m 0 min 0 min 0,0 UV-I 12 W/m 30,9 km/h (5 Bft)
13.10.2013 18:24 9,3 C 7,8 C 81 % 1014,2 hPa 0,0 l/m 0 min 0 min 0,0 UV-I 11 W/m 25,7 km/h (4 Bft)
13.10.2013 18:26 9,3 C 7,8 C 81 % 1014,1 hPa 0,0 l/m 0 min 0 min 0,0 UV-I 9 W/m 15,4 km/h (3 Bft)
13.10.2013 18:28 9,3 C 7,8 C 81 % 1014,1 hPa 0,0 l/m 0 min 0 min 0,0 UV-I 7 W/m 30,9 km/h (5 Bft)
13.10.2013 18:30 9,3 C 7,8 C 81 % 1014,2 hPa 0,0 l/m 0 min 0 min 0,0 UV-I 7 W/m 33,5 km/h (5 Bft)
13.10.2013 18:32 9,3 C 7,8 C 81 % 1014,1 hPa 0,0 l/m 0 min 0 min 0,0 UV-I 5 W/m 20,6 km/h (4 Bft)
13.10.2013 18:34 9,3 C 7,8 C 81 % 1014,1 hPa 0,0 l/m 0 min 0 min 0,0 UV-I 5 W/m 25,7 km/h (4 Bft)
13.10.2013 18:36 9,3 C 7,8 C 81 % 1014,1 hPa 0,0 l/m 0 min 0 min 0,0 UV-I 5 W/m 28,3 km/h (4 Bft)
13.10.2013 18:38 9,3 C 7,8 C 81 % 1014,2 hPa 0,0 l/m 0 min 0 min 0,0 UV-I 5 W/m 18,0 km/h (3 Bft)
13.10.2013 18:40 9,3 C 7,8 C 81 % 1014,2 hPa 0,0 l/m 0 min 0 min 0,0 UV-I 0 W/m 33,5 km/h (5 Bft)
13.10.2013 18:42 9,3 C 7,8 C 81 % 1014,1 hPa 0,0 l/m 0 min 0 min 0,0 UV-I 0 W/m 23,2 km/h (4 Bft)
13.10.2013 18:44 9,3 C 7,8 C 81 % 1014,2 hPa 0,0 l/m 0 min 0 min 0,0 UV-I 0 W/m 33,5 km/h (5 Bft)
13.10.2013 18:46 9,3 C 7,8 C 81 % 1014,1 hPa 0,0 l/m 0 min 0 min 0,0 UV-I 0 W/m 30,9 km/h (5 Bft)
13.10.2013 18:48 9,3 C 7,8 C 81 % 1014,1 hPa 0,0 l/m 0 min 0 min 0,0 UV-I 0 W/m 28,3 km/h (4 Bft)
13.10.2013 18:50 9,3 C 7,8 C 81 % 1014,1 hPa 0,0 l/m 0 min 0 min 0,0 UV-I 0 W/m 20,6 km/h (4 Bft)
13.10.2013 18:52 9,3 C 7,8 C 81 % 1014,1 hPa 0,0 l/m 0 min 0 min 0,0 UV-I 0 W/m 25,7 km/h (4 Bft)
13.10.2013 18:54 9,3 C 7,8 C 81 % 1014,1 hPa 0,0 l/m 0 min 0 min 0,0 UV-I 0 W/m 41,2 km/h (6 Bft)
13.10.2013 18:56 9,3 C 7,8 C 81 % 1014,2 hPa 0,0 l/m 0 min 0 min 0,0 UV-I 0 W/m 23,2 km/h (4 Bft)
13.10.2013 18:58 9,3 C 7,8 C 81 % 1014,1 hPa 0,0 l/m 0 min 0 min 0,0 UV-I 0 W/m 23,2 km/h (4 Bft)
13.10.2013 19:00 9,3 C 7,8 C 81 % 1014,2 hPa 0,0 l/m 0 min 0 min 0,0 UV-I 0 W/m 20,6 km/h (4 Bft)
13.10.2013 19:02 9,3 C 7,8 C 81 % 1014,1 hPa 0,0 l/m 0 min 0 min 0,0 UV-I 0 W/m 33,5 km/h (5 Bft)
13.10.2013 19:06 9,4 C 8,3 C 80 % 1014,2 hPa 0,0 l/m 0 min 0 min 0,0 UV-I 0 W/m 33,5 km/h (5 Bft)
13.10.2013 19:08 9,4 C 8,3 C 80 % 1014,2 hPa 0,0 l/m 0 min 0 min 0,0 UV-I 0 W/m 18,0 km/h (3 Bft)
13.10.2013 19:10 9,4 C 8,3 C 80 % 1014,2 hPa 0,0 l/m 0 min 0 min 0,0 UV-I 0 W/m 20,6 km/h (4 Bft)
13.10.2013 19:12 9,4 C 8,3 C 80 % 1014,2 hPa 0,0 l/m 0 min 0 min 0,0 UV-I 0 W/m 23,2 km/h (4 Bft)
13.10.2013 19:14 9,4 C 8,3 C 80 % 1014,2 hPa 0,0 l/m 0 min 0 min 0,0 UV-I 0 W/m 20,6 km/h (4 Bft)
13.10.2013 19:16 9,4 C 8,3 C 80 % 1014,2 hPa 0,0 l/m 0 min 0 min 0,0 UV-I 0 W/m 20,6 km/h (4 Bft)
13.10.2013 19:18 9,4 C 7,8 C 80 % 1014,1 hPa 0,0 l/m 0 min 0 min 0,0 UV-I 0 W/m 15,4 km/h (3 Bft)
13.10.2013 19:20 9,5 C 8,3 C 80 % 1014,1 hPa 0,0 l/m 0 min 0 min 0,0 UV-I 0 W/m 23,2 km/h (4 Bft)
13.10.2013 19:22 9,5 C 8,3 C 80 % 1014,1 hPa 0,0 l/m 0 min 2 min 0,0 UV-I 0 W/m 20,6 km/h (4 Bft)
13.10.2013 19:24 9,5 C 8,3 C 80 % 1014,1 hPa 0,0 l/m 0 min 0 min 0,0 UV-I 0 W/m 30,9 km/h (5 Bft)
13.10.2013 19:26 9,5 C 8,3 C 80 % 1014,1 hPa 0,0 l/m 0 min 0 min 0,0 UV-I 0 W/m 25,7 km/h (4 Bft)
13.10.2013 19:28 9,5 C 8,3 C 80 % 1014,0 hPa 0,0 l/m 0 min 0 min 0,0 UV-I 0 W/m 25,7 km/h (4 Bft)
13.10.2013 19:30 9,5 C 8,3 C 80 % 1014,1 hPa 0,0 l/m 0 min 0 min 0,0 UV-I 0 W/m 28,3 km/h (4 Bft)
13.10.2013 19:32 9,5 C 8,3 C 80 % 1014,2 hPa 0,0 l/m 0 min 0 min 0,0 UV-I 0 W/m 25,7 km/h (4 Bft)
13.10.2013 19:34 9,5 C 8,3 C 81 % 1014,0 hPa 0,0 l/m 0 min 0 min 0,0 UV-I 0 W/m 25,7 km/h (4 Bft)
13.10.2013 19:36 9,5 C 8,3 C 81 % 1014,0 hPa 0,0 l/m 0 min 0 min 0,0 UV-I 0 W/m 33,5 km/h (5 Bft)
13.10.2013 19:38 9,5 C 8,3 C 81 % 1014,2 hPa 0,0 l/m 0 min 0 min 0,0 UV-I 0 W/m 36,0 km/h (5 Bft)
13.10.2013 19:40 9,5 C 8,3 C 81 % 1014,2 hPa 0,0 l/m 0 min 0 min 0,0 UV-I 0 W/m 18,0 km/h (3 Bft)
13.10.2013 19:42 9,5 C 8,3 C 81 % 1014,3 hPa 0,0 l/m 0 min 0 min 0,0 UV-I 0 W/m 15,4 km/h (3 Bft)
13.10.2013 19:44 9,5 C 8,3 C 81 % 1014,2 hPa 0,0 l/m 0 min 0 min 0,0 UV-I 0 W/m 20,6 km/h (4 Bft)
13.10.2013 19:46 9,5 C 8,3 C 81 % 1014,3 hPa 0,0 l/m 0 min 0 min 0,0 UV-I 0 W/m 28,3 km/h (4 Bft)
13.10.2013 19:48 9,5 C 8,3 C 81 % 1014,3 hPa 0,0 l/m 0 min 0 min 0,0 UV-I 0 W/m 23,2 km/h (4 Bft)
13.10.2013 19:50 9,5 C 8,3 C 81 % 1014,2 hPa 0,0 l/m 0 min 0 min 0,0 UV-I 0 W/m 30,9 km/h (5 Bft)
13.10.2013 19:52 9,5 C 8,3 C 81 % 1014,3 hPa 0,0 l/m 0 min 0 min 0,0 UV-I 0 W/m 41,2 km/h (6 Bft)
13.10.2013 19:54 9,5 C 8,3 C 81 % 1014,4 hPa 0,0 l/m 0 min 2 min 0,0 UV-I 0 W/m 25,7 km/h (4 Bft)
13.10.2013 19:56 9,5 C 8,3 C 81 % 1014,3 hPa 0,0 l/m 0 min 0 min 0,0 UV-I 0 W/m 28,3 km/h (4 Bft)
13.10.2013 19:58 9,5 C 8,3 C 81 % 1014,4 hPa 0,0 l/m 0 min 0 min 0,0 UV-I 0 W/m 18,0 km/h (3 Bft)
13.10.2013 20:00 9,5 C 8,3 C 81 % 1014,4 hPa 0,0 l/m 0 min 0 min 0,0 UV-I 0 W/m 23,2 km/h (4 Bft)
13.10.2013 20:02 9,5 C 8,3 C 81 % 1014,3 hPa 0,0 l/m 0 min 0 min 0,0 UV-I 0 W/m 33,5 km/h (5 Bft)
13.10.2013 20:06 9,5 C 7,8 C 81 % 1014,4 hPa 0,0 l/m 0 min 0 min 0,0 UV-I 0 W/m 30,9 km/h (5 Bft)
13.10.2013 20:08 9,5 C 8,3 C 81 % 1014,4 hPa 0,0 l/m 0 min 0 min 0,0 UV-I 0 W/m 30,9 km/h (5 Bft)
13.10.2013 20:10 9,5 C 8,3 C 81 % 1014,5 hPa 0,0 l/m 0 min 0 min 0,0 UV-I 0 W/m 28,3 km/h (4 Bft)
13.10.2013 20:12 9,5 C 8,3 C 81 % 1014,5 hPa 0,0 l/m 0 min 0 min 0,0 UV-I 0 W/m 23,2 km/h (4 Bft)
13.10.2013 20:14 9,6 C 8,3 C 81 % 1014,5 hPa 0,0 l/m 0 min 2 min 0,0 UV-I 0 W/m 33,5 km/h (5 Bft)
13.10.2013 20:16 9,6 C 8,3 C 81 % 1014,5 hPa 0,0 l/m 0 min 2 min 0,0 UV-I 0 W/m 23,2 km/h (4 Bft)
13.10.2013 20:18 9,5 C 8,3 C 81 % 1014,5 hPa 0,0 l/m 0 min 0 min 0,0 UV-I 0 W/m 18,0 km/h (3 Bft)
13.10.2013 20:20 9,5 C 8,3 C 81 % 1014,5 hPa 0,0 l/m 0 min 0 min 0,0 UV-I 0 W/m 28,3 km/h (4 Bft)
13.10.2013 20:22 9,5 C 8,3 C 81 % 1014,5 hPa 0,0 l/m 0 min 0 min 0,0 UV-I 0 W/m 36,0 km/h (5 Bft)
13.10.2013 20:24 9,6 C 8,3 C 81 % 1014,5 hPa 0,0 l/m 0 min 0 min 0,0 UV-I 0 W/m 33,5 km/h (5 Bft)
13.10.2013 20:26 9,6 C 8,3 C 81 % 1014,5 hPa 0,0 l/m 0 min 0 min 0,0 UV-I 0 W/m 33,5 km/h (5 Bft)
13.10.2013 20:28 9,6 C 8,3 C 81 % 1014,5 hPa 0,0 l/m 0 min 2 min 0,0 UV-I 0 W/m 30,9 km/h (5 Bft)
13.10.2013 20:30 9,6 C 7,8 C 81 % 1014,5 hPa 0,0 l/m 0 min 2 min 0,0 UV-I 0 W/m 25,7 km/h (4 Bft)
13.10.2013 20:32 9,6 C 7,8 C 82 % 1014,5 hPa 0,0 l/m 0 min 2 min 0,0 UV-I 0 W/m 28,3 km/h (4 Bft)
13.10.2013 20:34 9,6 C 7,2 C 82 % 1014,6 hPa 0,0 l/m 0 min 2 min 0,0 UV-I 0 W/m 28,3 km/h (4 Bft)
13.10.2013 20:36 9,5 C 7,2 C 82 % 1014,5 hPa 0,0 l/m 0 min 2 min 0,0 UV-I 0 W/m 25,7 km/h (4 Bft)
13.10.2013 20:38 9,5 C 7,2 C 83 % 1014,4 hPa 0,0 l/m 0 min 2 min 0,0 UV-I 0 W/m 18,0 km/h (3 Bft)
13.10.2013 20:40 9,4 C 7,2 C 84 % 1014,4 hPa 0,0 l/m 0 min 2 min 0,0 UV-I 0 W/m 18,0 km/h (3 Bft)
13.10.2013 20:42 9,4 C 7,2 C 84 % 1014,3 hPa 0,0 l/m 0 min 2 min 0,0 UV-I 0 W/m 23,2 km/h (4 Bft)
13.10.2013 20:44 9,3 C 6,7 C 84 % 1014,4 hPa 0,0 l/m 0 min 2 min 0,0 UV-I 0 W/m 20,6 km/h (4 Bft)
13.10.2013 20:46 9,3 C 6,7 C 85 % 1014,4 hPa 0,0 l/m 0 min 2 min 0,0 UV-I 0 W/m 20,6 km/h (4 Bft)
13.10.2013 20:48 9,2 C 6,7 C 85 % 1014,3 hPa 0,0 l/m 0 min 2 min 0,0 UV-I 0 W/m 18,0 km/h (3 Bft)
13.10.2013 20:50 9,2 C 6,7 C 85 % 1014,3 hPa 0,0 l/m 0 min 2 min 0,0 UV-I 0 W/m 15,4 km/h (3 Bft)
13.10.2013 20:52 9,1 C 6,7 C 86 % 1014,3 hPa 0,0 l/m 0 min 2 min 0,0 UV-I 0 W/m 23,2 km/h (4 Bft)
13.10.2013 20:54 9,1 C 6,7 C 86 % 1014,3 hPa 0,0 l/m 0 min 2 min 0,0 UV-I 0 W/m 20,6 km/h (4 Bft)
13.10.2013 20:56 9,1 C 6,7 C 86 % 1014,4 hPa 0,0 l/m 0 min 2 min 0,0 UV-I 0 W/m 18,0 km/h (3 Bft)
13.10.2013 20:58 9,0 C 6,7 C 86 % 1014,3 hPa 0,0 l/m 0 min 2 min 0,0 UV-I 0 W/m 15,4 km/h (3 Bft)
13.10.2013 21:00 9,0 C 6,7 C 87 % 1014,3 hPa 0,0 l/m 0 min 2 min 0,0 UV-I 0 W/m 20,6 km/h (4 Bft)
13.10.2013 21:02 8,9 C 6,7 C 87 % 1014,2 hPa 0,0 l/m 0 min 2 min 0,0 UV-I 0 W/m 20,6 km/h (4 Bft)
13.10.2013 21:06 8,9 C 6,7 C 87 % 1014,3 hPa 0,0 l/m 0 min 2 min 0,0 UV-I 0 W/m 18,0 km/h (3 Bft)
13.10.2013 21:08 8,9 C 6,7 C 88 % 1014,3 hPa 0,0 l/m 0 min 2 min 0,0 UV-I 0 W/m 18,0 km/h (3 Bft)
13.10.2013 21:10 8,9 C 6,7 C 88 % 1014,3 hPa 0,0 l/m 0 min 2 min 0,0 UV-I 0 W/m 18,0 km/h (3 Bft)
13.10.2013 21:12 8,8 C 6,7 C 88 % 1014,3 hPa 0,0 l/m 0 min 2 min 0,0 UV-I 0 W/m 25,7 km/h (4 Bft)
13.10.2013 21:14 8,8 C 6,7 C 88 % 1014,4 hPa 0,0 l/m 0 min 2 min 0,0 UV-I 0 W/m 10,3 km/h (2 Bft)
13.10.2013 21:16 8,8 C 6,7 C 88 % 1014,3 hPa 0,0 l/m 0 min 2 min 0,0 UV-I 0 W/m 20,6 km/h (4 Bft)
13.10.2013 21:18 8,8 C 6,7 C 88 % 1014,3 hPa 0,0 l/m 0 min 2 min 0,0 UV-I 0 W/m 15,4 km/h (3 Bft)
13.10.2013 21:20 8,8 C 6,7 C 89 % 1014,4 hPa 0,0 l/m 0 min 2 min 0,0 UV-I 0 W/m 23,2 km/h (4 Bft)
13.10.2013 21:22 8,8 C 6,7 C 89 % 1014,4 hPa 0,0 l/m 0 min 2 min 0,0 UV-I 0 W/m 15,4 km/h (3 Bft)
13.10.2013 21:24 8,8 C 6,7 C 89 % 1014,3 hPa 0,0 l/m 0 min 2 min 0,0 UV-I 0 W/m 23,2 km/h (4 Bft)
13.10.2013 21:26 8,8 C 6,7 C 89 % 1014,4 hPa 0,0 l/m 0 min 2 min 0,0 UV-I 0 W/m 23,2 km/h (4 Bft)
13.10.2013 21:28 8,8 C 6,7 C 89 % 1014,4 hPa 0,0 l/m 0 min 2 min 0,0 UV-I 0 W/m 18,0 km/h (3 Bft)
13.10.2013 21:30 8,8 C 6,7 C 89 % 1014,4 hPa 0,0 l/m 0 min 2 min 0,0 UV-I 0 W/m 10,3 km/h (2 Bft)
13.10.2013 21:32 8,8 C 6,7 C 89 % 1014,4 hPa 0,0 l/m 0 min 2 min 0,0 UV-I 0 W/m 25,7 km/h (4 Bft)
13.10.2013 21:34 8,8 C 6,7 C 89 % 1014,4 hPa 0,0 l/m 0 min 2 min 0,0 UV-I 0 W/m 25,7 km/h (4 Bft)
13.10.2013 21:36 8,8 C 6,7 C 89 % 1014,4 hPa 0,0 l/m 0 min 2 min 0,0 UV-I 0 W/m 12,9 km/h (3 Bft)
13.10.2013 21:38 8,8 C 6,7 C 89 % 1014,4 hPa 0,0 l/m 0 min 2 min 0,0 UV-I 0 W/m 5,1 km/h (1 Bft)
13.10.2013 21:40 8,8 C 6,7 C 89 % 1014,4 hPa 0,0 l/m 0 min 2 min 0,0 UV-I 0 W/m 12,9 km/h (3 Bft)
13.10.2013 21:42 8,8 C 6,7 C 89 % 1014,4 hPa 0,2 l/m 0 min 2 min 0,0 UV-I 0 W/m 10,3 km/h (2 Bft)
13.10.2013 21:44 8,7 C 6,7 C 89 % 1014,4 hPa 0,0 l/m 0 min 2 min 0,0 UV-I 0 W/m 12,9 km/h (3 Bft)
13.10.2013 21:46 8,7 C 6,7 C 90 % 1014,5 hPa 0,0 l/m 0 min 2 min 0,0 UV-I 0 W/m 18,0 km/h (3 Bft)
13.10.2013 21:48 8,7 C 6,7 C 90 % 1014,4 hPa 0,0 l/m 0 min 2 min 0,0 UV-I 0 W/m 12,9 km/h (3 Bft)
13.10.2013 21:50 8,7 C 6,7 C 90 % 1014,5 hPa 0,0 l/m 0 min 2 min 0,0 UV-I 0 W/m 12,9 km/h (3 Bft)
13.10.2013 21:52 8,7 C 6,7 C 90 % 1014,5 hPa 0,0 l/m 0 min 2 min 0,0 UV-I 0 W/m 12,9 km/h (3 Bft)
13.10.2013 21:54 8,7 C 6,7 C 90 % 1014,5 hPa 0,0 l/m 0 min 2 min 0,0 UV-I 0 W/m 20,6 km/h (4 Bft)
13.10.2013 21:56 8,7 C 6,7 C 90 % 1014,5 hPa 0,0 l/m 0 min 2 min 0,0 UV-I 0 W/m 10,3 km/h (2 Bft)
13.10.2013 21:58 8,7 C 6,7 C 90 % 1014,6 hPa 0,0 l/m 0 min 2 min 0,0 UV-I 0 W/m 20,6 km/h (4 Bft)
13.10.2013 22:00 8,7 C 6,7 C 90 % 1014,5 hPa 0,0 l/m 0 min 2 min 0,0 UV-I 0 W/m 18,0 km/h (3 Bft)
13.10.2013 22:02 8,7 C 6,7 C 90 % 1014,5 hPa 0,0 l/m 0 min 0 min 0,0 UV-I 0 W/m 15,4 km/h (3 Bft)
13.10.2013 22:06 8,8 C 6,7 C 90 % 1014,5 hPa 0,0 l/m 0 min 2 min 0,0 UV-I 0 W/m 15,4 km/h (3 Bft)
13.10.2013 22:08 8,8 C 6,7 C 90 % 1014,5 hPa 0,0 l/m 0 min 2 min 0,0 UV-I 0 W/m 23,2 km/h (4 Bft)
13.10.2013 22:10 8,8 C 6,7 C 89 % 1014,5 hPa 0,0 l/m 0 min 0 min 0,0 UV-I 0 W/m 15,4 km/h (3 Bft)
13.10.2013 22:12 8,8 C 6,7 C 89 % 1014,6 hPa 0,0 l/m 0 min 0 min 0,0 UV-I 0 W/m 10,3 km/h (2 Bft)
13.10.2013 22:14 8,8 C 6,7 C 89 % 1014,6 hPa 0,0 l/m 0 min 0 min 0,0 UV-I 0 W/m 20,6 km/h (4 Bft)
13.10.2013 22:16 8,8 C 6,7 C 89 % 1014,6 hPa 0,0 l/m 0 min 2 min 0,0 UV-I 0 W/m 18,0 km/h (3 Bft)
13.10.2013 22:18 8,9 C 6,7 C 89 % 1014,6 hPa 0,0 l/m 0 min 2 min 0,0 UV-I 0 W/m 12,9 km/h (3 Bft)
13.10.2013 22:20 8,9 C 6,7 C 89 % 1014,5 hPa 0,0 l/m 0 min 2 min 0,0 UV-I 0 W/m 18,0 km/h (3 Bft)
13.10.2013 22:22 8,9 C 6,7 C 89 % 1014,6 hPa 0,0 l/m 0 min 2 min 0,0 UV-I 0 W/m 18,0 km/h (3 Bft)
13.10.2013 22:24 8,9 C 6,7 C 89 % 1014,6 hPa 0,0 l/m 0 min 2 min 0,0 UV-I 0 W/m 20,6 km/h (4 Bft)
13.10.2013 22:26 8,9 C 6,7 C 89 % 1014,6 hPa 0,0 l/m 0 min 0 min 0,0 UV-I 0 W/m 20,6 km/h (4 Bft)
13.10.2013 22:28 8,9 C 6,7 C 89 % 1014,7 hPa 0,0 l/m 0 min 2 min 0,0 UV-I 0 W/m 25,7 km/h (4 Bft)
13.10.2013 22:30 8,9 C 6,7 C 89 % 1014,6 hPa 0,0 l/m 0 min 2 min 0,0 UV-I 0 W/m 23,2 km/h (4 Bft)
13.10.2013 22:32 8,9 C 7,2 C 89 % 1014,6 hPa 0,0 l/m 0 min 2 min 0,0 UV-I 0 W/m 18,0 km/h (3 Bft)
13.10.2013 22:34 9,0 C 6,7 C 89 % 1014,7 hPa 0,0 l/m 0 min 2 min 0,0 UV-I 0 W/m 15,4 km/h (3 Bft)
13.10.2013 22:36 9,0 C 7,2 C 89 % 1014,7 hPa 0,0 l/m 0 min 0 min 0,0 UV-I 0 W/m 15,4 km/h (3 Bft)
13.10.2013 22:38 9,0 C 7,2 C 89 % 1014,7 hPa 0,0 l/m 0 min 2 min 0,0 UV-I 0 W/m 15,4 km/h (3 Bft)
13.10.2013 22:40 9,0 C 7,2 C 89 % 1014,7 hPa 0,0 l/m 0 min 2 min 0,0 UV-I 0 W/m 15,4 km/h (3 Bft)
13.10.2013 22:42 9,0 C 7,2 C 89 % 1014,7 hPa 0,0 l/m 0 min 2 min 0,0 UV-I 0 W/m 12,9 km/h (3 Bft)
13.10.2013 22:44 9,0 C 7,2 C 89 % 1014,7 hPa 0,0 l/m 0 min 0 min 0,0 UV-I 0 W/m 15,4 km/h (3 Bft)
13.10.2013 22:46 9,0 C 7,2 C 89 % 1014,7 hPa 0,0 l/m 0 min 0 min 0,0 UV-I 0 W/m 12,9 km/h (3 Bft)
13.10.2013 22:48 9,1 C 7,2 C 89 % 1014,6 hPa 0,0 l/m 0 min 0 min 0,0 UV-I 0 W/m 15,4 km/h (3 Bft)
13.10.2013 22:50 9,1 C 7,2 C 89 % 1014,7 hPa 0,0 l/m 0 min 2 min 0,0 UV-I 0 W/m 15,4 km/h (3 Bft)
13.10.2013 22:52 9,1 C 7,2 C 89 % 1014,7 hPa 0,0 l/m 0 min 2 min 0,0 UV-I 0 W/m 20,6 km/h (4 Bft)
13.10.2013 22:54 9,1 C 7,2 C 89 % 1014,7 hPa 0,0 l/m 0 min 0 min 0,0 UV-I 0 W/m 18,0 km/h (3 Bft)
13.10.2013 22:56 9,1 C 7,2 C 89 % 1014,7 hPa 0,0 l/m 0 min 0 min 0,0 UV-I 0 W/m 18,0 km/h (3 Bft)
13.10.2013 22:58 9,1 C 7,2 C 88 % 1014,7 hPa 0,0 l/m 0 min 2 min 0,0 UV-I 0 W/m 20,6 km/h (4 Bft)
13.10.2013 23:00 9,1 C 7,2 C 88 % 1014,8 hPa 0,0 l/m 0 min 0 min 0,0 UV-I 0 W/m 20,6 km/h (4 Bft)
13.10.2013 23:02 9,1 C 7,2 C 88 % 1014,7 hPa 0,0 l/m 0 min 0 min 0,0 UV-I 0 W/m 10,3 km/h (2 Bft)
13.10.2013 23:06 9,1 C 7,2 C 88 % 1014,6 hPa 0,0 l/m 0 min 2 min 0,0 UV-I 0 W/m 15,4 km/h (3 Bft)
13.10.2013 23:08 9,1 C 7,2 C 88 % 1014,7 hPa 0,0 l/m 0 min 2 min 0,0 UV-I 0 W/m 12,9 km/h (3 Bft)
13.10.2013 23:10 9,1 C 7,2 C 88 % 1014,7 hPa 0,0 l/m 0 min 0 min 0,0 UV-I 0 W/m 20,6 km/h (4 Bft)
13.10.2013 23:12 9,1 C 7,2 C 88 % 1014,6 hPa 0,0 l/m 0 min 0 min 0,0 UV-I 0 W/m 15,4 km/h (3 Bft)
13.10.2013 23:14 9,1 C 7,2 C 88 % 1014,7 hPa 0,0 l/m 0 min 0 min 0,0 UV-I 0 W/m 10,3 km/h (2 Bft)
13.10.2013 23:16 9,1 C 7,2 C 88 % 1014,7 hPa 0,0 l/m 0 min 0 min 0,0 UV-I 0 W/m 18,0 km/h (3 Bft)
13.10.2013 23:18 9,1 C 7,2 C 89 % 1014,7 hPa 0,0 l/m 0 min 0 min 0,0 UV-I 0 W/m 18,0 km/h (3 Bft)
13.10.2013 23:20 9,1 C 7,8 C 88 % 1014,6 hPa 0,0 l/m 0 min 2 min 0,0 UV-I 0 W/m 10,3 km/h (2 Bft)
13.10.2013 23:22 9,1 C 7,8 C 88 % 1014,7 hPa 0,0 l/m 0 min 0 min 0,0 UV-I 0 W/m 12,9 km/h (3 Bft)
13.10.2013 23:24 9,2 C 7,8 C 88 % 1014,7 hPa 0,0 l/m 0 min 0 min 0,0 UV-I 0 W/m 10,3 km/h (2 Bft)
13.10.2013 23:26 9,2 C 7,8 C 88 % 1014,7 hPa 0,0 l/m 0 min 0 min 0,0 UV-I 0 W/m 15,4 km/h (3 Bft)
13.10.2013 23:28 9,2 C 7,8 C 88 % 1014,7 hPa 0,0 l/m 0 min 0 min 0,0 UV-I 0 W/m 20,6 km/h (4 Bft)
13.10.2013 23:30 9,2 C 7,8 C 88 % 1014,7 hPa 0,0 l/m 0 min 0 min 0,0 UV-I 0 W/m 23,2 km/h (4 Bft)
13.10.2013 23:32 9,2 C 7,8 C 88 % 1014,8 hPa 0,0 l/m 0 min 0 min 0,0 UV-I 0 W/m 15,4 km/h (3 Bft)
13.10.2013 23:34 9,2 C 7,8 C 88 % 1014,8 hPa 0,0 l/m 0 min 0 min 0,0 UV-I 0 W/m 18,0 km/h (3 Bft)
13.10.2013 23:36 9,2 C 7,8 C 88 % 1014,8 hPa 0,0 l/m 0 min 0 min 0,0 UV-I 0 W/m 15,4 km/h (3 Bft)
13.10.2013 23:38 9,2 C 7,8 C 88 % 1014,8 hPa 0,0 l/m 0 min 0 min 0,0 UV-I 0 W/m 10,3 km/h (2 Bft)
13.10.2013 23:40 9,2 C 7,8 C 88 % 1014,8 hPa 0,0 l/m 0 min 0 min 0,0 UV-I 0 W/m 15,4 km/h (3 Bft)
13.10.2013 23:42 9,2 C 7,8 C 88 % 1014,8 hPa 0,0 l/m 0 min 0 min 0,0 UV-I 0 W/m 18,0 km/h (3 Bft)
13.10.2013 23:44 9,2 C 7,8 C 88 % 1014,8 hPa 0,0 l/m 0 min 0 min 0,0 UV-I 0 W/m 20,6 km/h (4 Bft)
13.10.2013 23:46 9,2 C 7,8 C 88 % 1014,7 hPa 0,0 l/m 0 min 0 min 0,0 UV-I 0 W/m 15,4 km/h (3 Bft)
13.10.2013 23:48 9,2 C 7,8 C 88 % 1014,8 hPa 0,0 l/m 0 min 0 min 0,0 UV-I 0 W/m 25,7 km/h (4 Bft)
13.10.2013 23:50 9,2 C 7,8 C 88 % 1014,8 hPa 0,0 l/m 0 min 0 min 0,0 UV-I 0 W/m 20,6 km/h (4 Bft)
13.10.2013 23:52 9,2 C 7,8 C 87 % 1014,8 hPa 0,0 l/m 0 min 0 min 0,0 UV-I 0 W/m 18,0 km/h (3 Bft)
13.10.2013 23:54 9,2 C 7,8 C 87 % 1014,8 hPa 0,0 l/m 0 min 0 min 0,0 UV-I 0 W/m 33,5 km/h (5 Bft)
13.10.2013 23:56 9,2 C 7,8 C 87 % 1014,8 hPa 0,0 l/m 0 min 0 min 0,0 UV-I 0 W/m 28,3 km/h (4 Bft)
13.10.2013 23:58 9,2 C 7,8 C 87 % 1014,8 hPa 0,0 l/m 0 min 0 min 0,0 UV-I 0 W/m 18,0 km/h (3 Bft)
_ Min-Zeit 04:00 01:30 15:58 18:16 - - - - - 00:00
Minimum _ 6,7 C 5,6 C 80 % 1014,0 hPa - - - - - 0,0 km/h (0 Bft)
_ Max-Zeit 13:40 13:28 00:00 11:08 03:26 13:28 00:00 13:28 13:34 13:00
Maximum _ 10,6 C 9,4 C 97 % 1015,4 hPa 0,2 l/m 2 min 2 min 1,1 UV-I 459 W/m 48,9 km/h
S-SO (6 Bft)
Durchschnitt _ 8,3 C 7,1 C 91 % 1014,6 hPa #3,0 l/m #20 min. #8:48 h 0,7 UV-I 104 W/m 16,5 km/h (3 Bft)
© 2013 W. Hausmann